| time (UTC) | temp F | wind direction | speed knots | gust knots | rain 1hr in | rain 24hr in | rain mn in | humidity % | barometer mb |
| 20260902173951 | 83 | 148 | 3.5 | 7.0 | 0.00 | 0.00 | 0.00 | 79 | 1012.6 |
| 20260902173945 | 83 | 136 | 3.5 | 7.0 | 0.00 | 0.00 | 0.00 | 79 | 1012.6 |
| 20260902173750 | 84 | 144 | 3.5 | 7.8 | 0.00 | 0.00 | 0.00 | 79 | 1012.6 |
| 20260902173632 | 84 | 118 | 3.5 | 7.8 | 0.00 | 0.00 | 0.00 | 80 | 1012.6 |
| 20260902173540 | 84 | 121 | 3.5 | 7.8 | 0.00 | 0.00 | 0.00 | 80 | 1012.6 |
| 20260902173441 | 84 | 173 | 3.5 | 7.8 | 0.00 | 0.00 | 0.00 | 80 | 1012.6 |
| 20260902173316 | 84 | 116 | 3.5 | 8.7 | 0.00 | 0.00 | 0.00 | 80 | 1012.6 |
| 20260902172933 | 84 | 105 | 2.6 | 8.7 | 0.00 | 0.00 | 0.00 | 79 | 1012.7 |
| 20260902172815 | 84 | 113 | 1.7 | 6.1 | 0.00 | 0.00 | 0.00 | 79 | 1012.5 |
| 20260902172732 | 84 | 177 | 2.6 | 8.7 | 0.00 | 0.00 | 0.00 | 79 | 1012.6 |
| 20260902172602 | 84 | 150 | 2.6 | 8.7 | 0.00 | 0.00 | 0.00 | 79 | 1012.6 |
| 20260902172519 | 84 | 149 | 2.6 | 8.7 | 0.00 | 0.00 | 0.00 | 79 | 1012.6 |
| 20260902172425 | 84 | 106 | 2.6 | 8.7 | 0.00 | 0.00 | 0.00 | 79 | 1012.6 |
| 20260902172256 | 84 | 171 | 1.7 | 6.1 | 0.00 | 0.00 | 0.00 | 79 | 1012.5 |
| 20260902171916 | 84 | 134 | 1.7 | 6.1 | 0.00 | 0.00 | 0.00 | 79 | 1012.5 |
| 20260902171723 | 84 | 138 | 1.7 | 8.7 | 0.00 | 0.00 | 0.00 | 79 | 1012.5 |
| 20260902171524 | 84 | 172 | 1.7 | 8.7 | 0.00 | 0.00 | 0.00 | 79 | 1012.6 |
| 20260902171436 | 84 | 128 | 1.7 | 8.7 | 0.00 | 0.00 | 0.00 | 79 | 1012.5 |
| 20260902171316 | 84 | 150 | 1.7 | 8.7 | 0.00 | 0.00 | 0.00 | 79 | 1012.5 |
| 20260902171118 | 84 | 214 | 1.7 | 8.7 | 0.00 | 0.00 | 0.00 | 79 | 1012.5 |
| 20260902171105 | 85 | 194 | 1.7 | 5.2 | 0.00 | 0.00 | 0.00 | 79 | 1012.5 |
| 20260902170941 | 84 | 153 | 1.7 | 8.7 | 0.00 | 0.00 | 0.00 | 79 | 1012.5 |
| 20260902170918 | 84 | 179 | 1.7 | 8.7 | 0.00 | 0.00 | 0.00 | 79 | 1012.5 |
| 20260902170910 | 85 | 179 | 1.7 | 5.2 | 0.00 | 0.00 | 0.00 | 79 | 1012.5 |
| 20260902170747 | 85 | 183 | 1.7 | 4.3 | 0.00 | 0.00 | 0.00 | 80 | 1012.5 |
| 20260902170618 | 85 | 137 | 1.7 | 4.3 | 0.00 | 0.00 | 0.00 | 79 | 1012.5 |
| 20260902170544 | 85 | 256 | 1.7 | 4.3 | 0.00 | 0.00 | 0.00 | 79 | 1012.5 |
| 20260902170456 | 85 | 176 | 1.7 | 4.3 | 0.00 | 0.00 | 0.00 | 79 | 1012.5 |
| 20260902170332 | 85 | 163 | 1.7 | 4.3 | 0.00 | 0.00 | 0.00 | 79 | 1012.5 |
| 20260902165940 | 85 | 207 | 1.7 | 5.2 | 0.00 | 0.00 | 0.00 | 79 | 1012.5 |
| 20260902165826 | 85 | 182 | 1.7 | 5.2 | 0.00 | 0.00 | 0.00 | 79 | 1012.5 |
| 20260902165702 | 85 | 170 | 1.7 | 5.2 | 0.00 | 0.00 | 0.00 | 79 | 1012.5 |
| 20260902165309 | 85 | 179 | 1.7 | 5.2 | 0.00 | 0.00 | 0.00 | 78 | 1012.6 |
| 20260902165108 | 85 | 219 | 1.7 | 5.2 | 0.00 | 0.00 | 0.00 | 78 | 1012.6 |
| 20260902164924 | 85 | 234 | 1.7 | 4.3 | 0.00 | 0.00 | 0.00 | 78 | 1012.5 |
| 20260902164911 | 85 | 154 | 1.7 | 4.3 | 0.00 | 0.00 | 0.00 | 78 | 1012.5 |
| 20260902164749 | 85 | 199 | 1.7 | 4.3 | 0.00 | 0.00 | 0.00 | 78 | 1012.5 |
| 20260902164616 | 85 | 130 | 1.7 | 3.5 | 0.00 | 0.00 | 0.00 | 78 | 1012.6 |
| 20260902164536 | 85 | 141 | 1.7 | 4.3 | 0.00 | 0.00 | 0.00 | 78 | 1012.6 |
| 20260902164451 | 85 | 149 | 1.7 | 4.3 | 0.00 | 0.00 | 0.00 | 77 | 1012.6 |
| 20260902164115 | 85 | 219 | 0.9 | 4.3 | 0.00 | 0.00 | 0.00 | 77 | 1012.6 |
| 20260902163911 | 85 | 188 | 0.9 | 4.3 | 0.00 | 0.00 | 0.00 | 77 | 1012.6 |
| 20260902163659 | 85 | 136 | 0.9 | 4.3 | 0.00 | 0.00 | 0.00 | 77 | 1012.6 |
| 20260902163457 | 85 | 163 | 0.9 | 4.3 | 0.00 | 0.00 | 0.00 | 77 | 1012.5 |
| 20260902163414 | 85 | 161 | 0.9 | 4.3 | 0.00 | 0.00 | 0.00 | 76 | 1012.6 |
| 20260902163251 | 85 | 145 | 1.7 | 4.3 | 0.00 | 0.00 | 0.00 | 76 | 1012.5 |
| 20260902163202 | 86 | 156 | 2.6 | 7.8 | 0.00 | 0.00 | 0.00 | 75 | 1012.6 |
| 20260902163110 | 85 | 159 | 1.7 | 6.1 | 0.00 | 0.00 | 0.00 | 76 | 1012.5 |
| 20260902162958 | 85 | 153 | 1.7 | 6.1 | 0.00 | 0.00 | 0.00 | 76 | 1012.6 |
| 20260902162941 | 85 | 183 | 1.7 | 6.1 | 0.00 | 0.00 | 0.00 | 76 | 1012.6 |
| 20260902162813 | 86 | 155 | 1.7 | 6.1 | 0.00 | 0.00 | 0.00 | 76 | 1012.6 |
| 20260902162656 | 86 | 163 | 2.6 | 7.8 | 0.00 | 0.00 | 0.00 | 75 | 1012.6 |
| 20260902162242 | 86 | 200 | 2.6 | 7.8 | 0.00 | 0.00 | 0.00 | 75 | 1012.6 |
| 20260902162046 | 86 | 196 | 2.6 | 7.8 | 0.00 | 0.00 | 0.00 | 75 | 1012.6 |
| 20260902161935 | 86 | 223 | 2.6 | 6.1 | 0.00 | 0.00 | 0.00 | 73 | 1012.5 |
| 20260902161915 | 86 | 163 | 2.6 | 7.8 | 0.00 | 0.00 | 0.00 | 75 | 1012.5 |
| 20260902161847 | 86 | 193 | 2.6 | 7.8 | 0.00 | 0.00 | 0.00 | 75 | 1012.5 |
| 20260902161715 | 86 | 195 | 2.6 | 7.8 | 0.00 | 0.00 | 0.00 | 74 | 1012.5 |
| 20260902161539 | 86 | 188 | 2.6 | 6.1 | 0.00 | 0.00 | 0.00 | 74 | 1012.5 |
| 20260902161458 | 86 | 185 | 2.6 | 6.1 | 0.00 | 0.00 | 0.00 | 74 | 1012.4 |
| 20260902161351 | 86 | 206 | 2.6 | 6.1 | 0.00 | 0.00 | 0.00 | 74 | 1012.4 |
| 20260902161228 | 86 | 153 | 2.6 | 6.1 | 0.00 | 0.00 | 0.00 | 74 | 1012.4 |
| 20260902160841 | 86 | 225 | 2.6 | 6.1 | 0.00 | 0.00 | 0.00 | 73 | 1012.5 |
| 20260902160642 | 87 | 210 | 2.6 | 6.1 | 0.00 | 0.00 | 0.00 | 73 | 1012.6 |
| 20260902160442 | 87 | 200 | 2.6 | 7.0 | 0.00 | 0.00 | 0.00 | 73 | 1012.6 |
| 20260902160410 | 87 | 207 | 2.6 | 7.0 | 0.00 | 0.00 | 0.00 | 73 | 1012.6 |
| 20260902160239 | 87 | 198 | 2.6 | 7.0 | 0.00 | 0.00 | 0.00 | 72 | 1012.5 |
| 20260902160038 | 87 | 169 | 2.6 | 7.0 | 0.00 | 0.00 | 0.00 | 72 | 1012.7 |
| 20260902155910 | 87 | 215 | 2.6 | 7.0 | 0.00 | 0.00 | 0.00 | 72 | 1012.7 |
| 20260902155832 | 87 | 214 | 2.6 | 7.0 | 0.00 | 0.00 | 0.00 | 71 | 1012.7 |
| 20260902155637 | 87 | 198 | 2.6 | 7.0 | 0.00 | 0.00 | 0.00 | 71 | 1012.7 |
| 20260902155438 | 87 | 181 | 2.6 | 7.8 | 0.00 | 0.00 | 0.00 | 71 | 1012.7 |
| 20260902155406 | 87 | 202 | 2.6 | 7.8 | 0.00 | 0.00 | 0.00 | 71 | 1012.7 |
| 20260902155240 | 87 | 211 | 1.7 | 7.8 | 0.00 | 0.00 | 0.00 | 70 | 1012.7 |
| 20260902155113 | 87 | 178 | 2.6 | 7.8 | 0.00 | 0.00 | 0.00 | 70 | 1012.8 |
| 20260902154958 | 87 | 195 | 3.5 | 7.8 | 0.00 | 0.00 | 0.00 | 70 | 1012.8 |
| 20260902154936 | 87 | 231 | 3.5 | 7.8 | 0.00 | 0.00 | 0.00 | 70 | 1012.8 |
| 20260902154814 | 87 | 193 | 3.5 | 7.8 | 0.00 | 0.00 | 0.00 | 69 | 1012.8 |
| 20260902154656 | 87 | 202 | 3.5 | 7.8 | 0.00 | 0.00 | 0.00 | 69 | 1012.9 |
| 20260902154625 | 87 | 218 | 3.5 | 7.8 | 0.00 | 0.00 | 0.00 | 69 | 1012.9 |
| 20260902154519 | 88 | 216 | 3.5 | 7.8 | 0.00 | 0.00 | 0.00 | 69 | 1012.8 |
| 20260902154028 | 88 | 190 | 3.5 | 7.8 | 0.00 | 0.00 | 0.00 | 69 | 1012.8 |
| 20260902153911 | 88 | 215 | 2.6 | 7.8 | 0.00 | 0.00 | 0.00 | 68 | 1012.8 |
| 20260902153829 | 88 | 198 | 2.6 | 7.8 | 0.00 | 0.00 | 0.00 | 68 | 1012.8 |
| 20260902153634 | 88 | 178 | 2.6 | 7.8 | 0.00 | 0.00 | 0.00 | 68 | 1012.8 |
| 20260902153438 | 88 | 155 | 3.5 | 7.8 | 0.00 | 0.00 | 0.00 | 67 | 1012.7 |
| 20260902153404 | 88 | 153 | 3.5 | 7.8 | 0.00 | 0.00 | 0.00 | 67 | 1012.7 |
| 20260902153224 | 88 | 219 | 3.5 | 7.8 | 0.00 | 0.00 | 0.00 | 67 | 1012.7 |
| 20260902153021 | 88 | 192 | 3.5 | 7.8 | 0.00 | 0.00 | 0.00 | 67 | 1012.6 |
| 20260902152906 | 88 | 198 | 3.5 | 7.8 | 0.00 | 0.00 | 0.00 | 67 | 1012.4 |
| 20260902152824 | 89 | 221 | 3.5 | 7.8 | 0.00 | 0.00 | 0.00 | 66 | 1012.4 |
| 20260902152622 | 89 | 180 | 3.5 | 8.7 | 0.00 | 0.00 | 0.00 | 66 | 1012.4 |
| 20260902152431 | 89 | 207 | 3.5 | 8.7 | 0.00 | 0.00 | 0.00 | 66 | 1012.3 |
| 20260902152409 | 89 | 192 | 3.5 | 8.7 | 0.00 | 0.00 | 0.00 | 66 | 1012.3 |
| 20260902152224 | 89 | 219 | 3.5 | 8.7 | 0.00 | 0.00 | 0.00 | 65 | 1012.3 |
| 20260902152021 | 89 | 194 | 4.3 | 8.7 | 0.00 | 0.00 | 0.00 | 64 | 1012.2 |
| 20260902151907 | 89 | 165 | 4.3 | 8.7 | 0.00 | 0.00 | 0.00 | 64 | 1012.3 |
| 20260902151822 | 89 | 180 | 3.5 | 8.7 | 0.00 | 0.00 | 0.00 | 64 | 1012.3 |
| 20260902151619 | 89 | 180 | 3.5 | 8.7 | 0.00 | 0.00 | 0.00 | 63 | 1012.3 |
| 20260902151429 | 90 | 193 | 3.5 | 8.7 | 0.00 | 0.00 | 0.00 | 63 | 1012.3 |
| 20260902151403 | 90 | 166 | 3.5 | 8.7 | 0.00 | 0.00 | 0.00 | 63 | 1012.3 |
| 20260902151219 | 90 | 161 | 3.5 | 8.7 | 0.00 | 0.00 | 0.00 | 63 | 1012.2 |
| 20260902151014 | 90 | 219 | 3.5 | 8.7 | 0.00 | 0.00 | 0.00 | 62 | 1012.3 |
| 20260902150908 | 90 | 221 | 3.5 | 8.7 | 0.00 | 0.00 | 0.00 | 62 | 1012.2 |
| 20260902150809 | 90 | 189 | 3.5 | 8.7 | 0.00 | 0.00 | 0.00 | 62 | 1012.2 |
| 20260902150615 | 90 | 186 | 3.5 | 7.8 | 0.00 | 0.00 | 0.00 | 62 | 1012.2 |
| 20260902150403 | 90 | 123 | 4.3 | 10.4 | 0.00 | 0.00 | 0.00 | 61 | 1012.2 |
| 20260902150205 | 90 | 180 | 4.3 | 10.4 | 0.00 | 0.00 | 0.00 | 61 | 1012.2 |
| 20260902150013 | 91 | 210 | 4.3 | 10.4 | 0.00 | 0.00 | 0.00 | 61 | 1012.2 |
| 20260902145915 | 91 | 191 | 4.3 | 10.4 | 0.00 | 0.00 | 0.00 | 61 | 1012.2 |
| 20260902145807 | 91 | 143 | 4.3 | 10.4 | 0.00 | 0.00 | 0.00 | 61 | 1012.2 |
| 20260902145611 | 91 | 210 | 5.2 | 10.4 | 0.00 | 0.00 | 0.00 | 60 | 1012.2 |
| 20260902145414 | 91 | 185 | 5.2 | 10.4 | 0.00 | 0.00 | 0.00 | 60 | 1012.2 |
| 20260902145158 | 91 | 146 | 4.3 | 13.9 | 0.00 | 0.00 | 0.00 | 60 | 1012.2 |
| 20260902144957 | 91 | 213 | 4.3 | 13.9 | 0.00 | 0.00 | 0.00 | 59 | 1012.2 |
| 20260902144905 | 91 | 209 | 4.3 | 13.9 | 0.00 | 0.00 | 0.00 | 59 | 1012.2 |
| 20260902144756 | 91 | 190 | 4.3 | 13.9 | 0.00 | 0.00 | 0.00 | 60 | 1012.2 |
| 20260902144557 | 91 | 146 | 4.3 | 13.9 | 0.00 | 0.00 | 0.00 | 60 | 1012.3 |
| 20260902144418 | 91 | 180 | 4.3 | 13.9 | 0.00 | 0.00 | 0.00 | 59 | 1012.3 |
| 20260902144352 | 91 | 182 | 4.3 | 13.9 | 0.00 | 0.00 | 0.00 | 59 | 1012.3 |
| 20260902144148 | 91 | 196 | 4.3 | 9.6 | 0.00 | 0.00 | 0.00 | 58 | 1012.2 |
| 20260902143950 | 91 | 223 | 4.3 | 9.6 | 0.00 | 0.00 | 0.00 | 58 | 1012.2 |
| 20260902143909 | 91 | 202 | 4.3 | 9.6 | 0.00 | 0.00 | 0.00 | 58 | 1012.3 |
| 20260902143749 | 91 | 192 | 4.3 | 9.6 | 0.00 | 0.00 | 0.00 | 57 | 1012.3 |
| 20260902143550 | 91 | 205 | 4.3 | 9.6 | 0.00 | 0.00 | 0.00 | 57 | 1012.3 |
| 20260902143414 | 91 | 185 | 4.3 | 9.6 | 0.00 | 0.00 | 0.00 | 57 | 1012.2 |
| 20260902143349 | 91 | 199 | 4.3 | 9.6 | 0.00 | 0.00 | 0.00 | 57 | 1012.2 |
| 20260902143331 | 91 | 206 | 5.2 | 9.6 | 0.00 | 0.00 | 0.00 | 57 | 1012.3 |
| 20260902143201 | 91 | 236 | 4.3 | 9.6 | 0.00 | 0.00 | 0.00 | 57 | 1012.3 |
| 20260902143025 | 91 | 130 | 5.2 | 9.6 | 0.00 | 0.00 | 0.00 | 57 | 1012.2 |
| 20260902142947 | 91 | 196 | 5.2 | 9.6 | 0.00 | 0.00 | 0.00 | 57 | 1012.2 |
| 20260902142847 | 91 | 232 | 4.3 | 9.6 | 0.00 | 0.00 | 0.00 | 57 | 1012.2 |
| 20260902142727 | 91 | 143 | 4.3 | 9.6 | 0.00 | 0.00 | 0.00 | 57 | 1012.3 |
| 20260902142343 | 91 | 267 | 5.2 | 9.6 | 0.00 | 0.00 | 0.00 | 57 | 1012.3 |
| 20260902142145 | 91 | 173 | 5.2 | 9.6 | 0.00 | 0.00 | 0.00 | 58 | 1012.2 |
| 20260902141950 | 91 | 207 | 5.2 | 9.6 | 0.00 | 0.00 | 0.00 | 58 | 1012.2 |
| 20260902141918 | 91 | 217 | 5.2 | 9.6 | 0.00 | 0.00 | 0.00 | 58 | 1012.3 |
| 20260902141747 | 91 | 155 | 5.2 | 9.6 | 0.00 | 0.00 | 0.00 | 58 | 1012.3 |
| 20260902141543 | 91 | 223 | 5.2 | 9.6 | 0.00 | 0.00 | 0.00 | 57 | 1012.3 |
| 20260902141416 | 92 | 202 | 4.3 | 8.7 | 0.00 | 0.00 | 0.00 | 57 | 1012.3 |
| 20260902141342 | 92 | 150 | 4.3 | 8.7 | 0.00 | 0.00 | 0.00 | 57 | 1012.3 |
| 20260902141141 | 92 | 219 | 4.3 | 8.7 | 0.00 | 0.00 | 0.00 | 57 | 1012.3 |
| 20260902140937 | 92 | 181 | 4.3 | 7.8 | 0.00 | 0.00 | 0.00 | 57 | 1012.4 |
| 20260902140905 | 92 | 188 | 4.3 | 7.8 | 0.00 | 0.00 | 0.00 | 56 | 1012.3 |
| 20260902140739 | 92 | 180 | 4.3 | 11.3 | 0.00 | 0.00 | 0.00 | 56 | 1012.3 |
| 20260902140545 | 92 | 190 | 4.3 | 11.3 | 0.00 | 0.00 | 0.00 | 56 | 1012.4 |
| 20260902140417 | 92 | 158 | 4.3 | 11.3 | 0.00 | 0.00 | 0.00 | 56 | 1012.4 |
| 20260902140345 | 92 | 166 | 4.3 | 11.3 | 0.00 | 0.00 | 0.00 | 56 | 1012.4 |
| 20260902140139 | 92 | 218 | 4.3 | 11.3 | 0.00 | 0.00 | 0.00 | 55 | 1012.5 |
| 20260902135941 | 92 | 196 | 4.3 | 11.3 | 0.00 | 0.00 | 0.00 | 55 | 1012.5 |
| 20260902135906 | 93 | 223 | 4.3 | 11.3 | 0.00 | 0.00 | 0.00 | 55 | 1012.6 |
| 20260902135741 | 93 | 213 | 4.3 | 8.7 | 0.00 | 0.00 | 0.00 | 55 | 1012.6 |
| 20260902135538 | 93 | 169 | 4.3 | 8.7 | 0.00 | 0.00 | 0.00 | 55 | 1012.6 |
| 20260902135411 | 93 | 163 | 4.3 | 8.7 | 0.00 | 0.00 | 0.00 | 55 | 1012.6 |
| 20260902135347 | 93 | 196 | 4.3 | 8.7 | 0.00 | 0.00 | 0.00 | 55 | 1012.6 |
| 20260902135137 | 93 | 232 | 4.3 | 8.7 | 0.00 | 0.00 | 0.00 | 55 | 1012.6 |
| 20260902134935 | 94 | 144 | 4.3 | 8.7 | 0.00 | 0.00 | 0.00 | 54 | 1012.7 |
| 20260902134854 | 94 | 205 | 4.3 | 8.7 | 0.00 | 0.00 | 0.00 | 54 | 1012.8 |
| 20260902134743 | 94 | 191 | 4.3 | 8.7 | 0.00 | 0.00 | 0.00 | 54 | 1012.8 |
| 20260902134541 | 94 | 214 | 4.3 | 8.7 | 0.00 | 0.00 | 0.00 | 54 | 1012.9 |
| 20260902134410 | 94 | 167 | 4.3 | 7.8 | 0.00 | 0.00 | 0.00 | 54 | 1012.9 |
| 20260902134346 | 94 | 159 | 4.3 | 7.8 | 0.00 | 0.00 | 0.00 | 54 | 1012.9 |
| 20260902134140 | 94 | 193 | 4.3 | 7.8 | 0.00 | 0.00 | 0.00 | 54 | 1013.0 |
| 20260902133935 | 94 | 184 | 4.3 | 9.6 | 0.00 | 0.00 | 0.00 | 54 | 1013.1 |
| 20260902133900 | 94 | 177 | 4.3 | 9.6 | 0.00 | 0.00 | 0.00 | 54 | 1013.1 |
| 20260902133739 | 94 | 180 | 4.3 | 9.6 | 0.00 | 0.00 | 0.00 | 54 | 1013.1 |
| 20260902133540 | 94 | 196 | 4.3 | 9.6 | 0.00 | 0.00 | 0.00 | 54 | 1013.1 |
| 20260902133530 | 95 | 209 | 4.3 | 9.6 | 0.00 | 0.00 | 0.00 | 54 | 1013.1 |
| 20260902133402 | 94 | 154 | 4.3 | 9.6 | 0.00 | 0.00 | 0.00 | 53 | 1013.1 |
| 20260902133337 | 95 | 173 | 4.3 | 9.6 | 0.00 | 0.00 | 0.00 | 53 | 1013.1 |
| 20260902133302 | 95 | 234 | 4.3 | 9.6 | 0.00 | 0.00 | 0.00 | 55 | 1013.1 |
| 20260902133225 | 95 | 205 | 4.3 | 12.2 | 0.00 | 0.00 | 0.00 | 54 | 1013.0 |
| 20260902133148 | 95 | 160 | 4.3 | 9.6 | 0.00 | 0.00 | 0.00 | 54 | 1013.1 |
| 20260902133015 | 95 | 152 | 4.3 | 9.6 | 0.00 | 0.00 | 0.00 | 54 | 1013.1 |
| 20260902132947 | 95 | 180 | 4.3 | 9.6 | 0.00 | 0.00 | 0.00 | 54 | 1013.1 |
| 20260902132833 | 95 | 186 | 4.3 | 9.6 | 0.00 | 0.00 | 0.00 | 54 | 1013.1 |
| 20260902132722 | 95 | 142 | 4.3 | 9.6 | 0.00 | 0.00 | 0.00 | 55 | 1013.1 |
| 20260902132338 | 95 | 203 | 4.3 | 9.6 | 0.00 | 0.00 | 0.00 | 54 | 1013.1 |
| 20260902132206 | 95 | 210 | 4.3 | 9.6 | 0.00 | 0.00 | 0.00 | 54 | 1013.1 |
| 20260902132037 | 95 | 196 | 4.3 | 9.6 | 0.00 | 0.00 | 0.00 | 53 | 1013.1 |
| 20260902132005 | 95 | 236 | 4.3 | 9.6 | 0.00 | 0.00 | 0.00 | 53 | 1013.1 |
| 20260902131903 | 95 | 199 | 4.3 | 9.6 | 0.00 | 0.00 | 0.00 | 53 | 1013.1 |
| 20260902131754 | 95 | 153 | 4.3 | 9.6 | 0.00 | 0.00 | 0.00 | 55 | 1013.1 |
| 20260902131409 | 95 | 219 | 4.3 | 9.6 | 0.00 | 0.00 | 0.00 | 55 | 1013.1 |
| 20260902131248 | 95 | 183 | 5.2 | 12.2 | 0.00 | 0.00 | 0.00 | 55 | 1013.0 |
| 20260902131123 | 95 | 205 | 4.3 | 12.2 | 0.00 | 0.00 | 0.00 | 55 | 1013.0 |
| 20260902130827 | 95 | 200 | 3.5 | 10.4 | 0.00 | 0.00 | 0.00 | 54 | 1012.9 |
| 20260902130718 | 95 | 178 | 4.3 | 12.2 | 0.00 | 0.00 | 0.00 | 54 | 1013.1 |
| 20260902130600 | 95 | 205 | 4.3 | 12.2 | 0.00 | 0.00 | 0.00 | 54 | 1013.0 |
| 20260902130455 | 95 | 183 | 4.3 | 12.2 | 0.00 | 0.00 | 0.00 | 54 | 1013.0 |
| 20260902130422 | 95 | 140 | 4.3 | 12.2 | 0.00 | 0.00 | 0.00 | 54 | 1012.9 |
| 20260902130306 | 95 | 146 | 4.3 | 10.4 | 0.00 | 0.00 | 0.00 | 54 | 1013.1 |
| 20260902130151 | 95 | 161 | 3.5 | 10.4 | 0.00 | 0.00 | 0.00 | 54 | 1012.9 |
| 20260902125706 | 95 | 156 | 4.3 | 10.4 | 0.00 | 0.00 | 0.00 | 54 | 1013.0 |
| 20260902125506 | 95 | 232 | 4.3 | 10.4 | 0.00 | 0.00 | 0.00 | 53 | 1013.0 |
| 20260902125357 | 96 | 217 | 4.3 | 10.4 | 0.00 | 0.00 | 0.00 | 53 | 1013.0 |
| 20260902125306 | 96 | 173 | 4.3 | 9.6 | 0.00 | 0.00 | 0.00 | 54 | 1013.0 |
| 20260902125110 | 96 | 213 | 4.3 | 10.4 | 0.00 | 0.00 | 0.00 | 54 | 1013.0 |
| 20260902124911 | 95 | 173 | 4.3 | 10.4 | 0.00 | 0.00 | 0.00 | 54 | 1013.1 |
| 20260902124853 | 95 | 188 | 4.3 | 10.4 | 0.00 | 0.00 | 0.00 | 54 | 1013.1 |
| 20260902124705 | 95 | 198 | 4.3 | 10.4 | 0.00 | 0.00 | 0.00 | 53 | 1013.2 |
| 20260902124506 | 95 | 169 | 4.3 | 10.4 | 0.00 | 0.00 | 0.00 | 53 | 1013.2 |
| 20260902124345 | 95 | 236 | 4.3 | 10.4 | 0.00 | 0.00 | 0.00 | 53 | 1013.2 |
| 20260902124313 | 95 | 42 | 4.3 | 10.4 | 0.00 | 0.00 | 0.00 | 53 | 1013.2 |
| 20260902124205 | 95 | 207 | 5.2 | 11.3 | 0.00 | 0.00 | 0.00 | 52 | 1013.4 |
| 20260902124113 | 95 | 143 | 4.3 | 11.3 | 0.00 | 0.00 | 0.00 | 52 | 1013.3 |
| 20260902123936 | 95 | 175 | 4.3 | 11.3 | 0.00 | 0.00 | 0.00 | 52 | 1013.2 |
| 20260902123926 | 95 | 177 | 4.3 | 11.3 | 0.00 | 0.00 | 0.00 | 52 | 1013.2 |
| 20260902123800 | 95 | 216 | 4.3 | 11.3 | 0.00 | 0.00 | 0.00 | 52 | 1013.3 |
| 20260902123644 | 95 | 211 | 5.2 | 11.3 | 0.00 | 0.00 | 0.00 | 53 | 1013.4 |
| 20260902123257 | 95 | 171 | 5.2 | 11.3 | 0.00 | 0.00 | 0.00 | 52 | 1013.4 |
| 20260902123101 | 95 | 215 | 4.3 | 10.4 | 0.00 | 0.00 | 0.00 | 52 | 1013.5 |
| 20260902122858 | 95 | 165 | 4.3 | 9.6 | 0.00 | 0.00 | 0.00 | 52 | 1013.5 |
| 20260902122845 | 95 | 101 | 4.3 | 9.6 | 0.00 | 0.00 | 0.00 | 51 | 1013.5 |
| 20260902122655 | 95 | 140 | 4.3 | 9.6 | 0.00 | 0.00 | 0.00 | 51 | 1013.5 |
| 20260902122442 | 95 | 178 | 3.5 | 9.6 | 0.00 | 0.00 | 0.00 | 52 | 1013.5 |
| 20260902122334 | 95 | 153 | 3.5 | 9.6 | 0.00 | 0.00 | 0.00 | 53 | 1013.5 |
| 20260902122241 | 95 | 221 | 3.5 | 9.6 | 0.00 | 0.00 | 0.00 | 54 | 1013.5 |
| 20260902122159 | 95 | 13 | 3.5 | 7.8 | 0.00 | 0.00 | 0.00 | 57 | 1013.8 |
| 20260902122057 | 95 | 136 | 3.5 | 9.6 | 0.00 | 0.00 | 0.00 | 55 | 1013.6 |
| 20260902121934 | 95 | 156 | 3.5 | 9.6 | 0.00 | 0.00 | 0.00 | 56 | 1013.7 |
| 20260902121922 | 95 | 159 | 3.5 | 9.6 | 0.00 | 0.00 | 0.00 | 56 | 1013.7 |
| 20260902121805 | 95 | 192 | 3.5 | 9.6 | 0.00 | 0.00 | 0.00 | 56 | 1013.6 |
| 20260902121653 | 95 | 142 | 3.5 | 7.8 | 0.00 | 0.00 | 0.00 | 56 | 1013.7 |
| 20260902121338 | 95 | 205 | 3.5 | 7.8 | 0.00 | 0.00 | 0.00 | 56 | 1013.7 |
| 20260902121239 | 95 | 162 | 3.5 | 7.8 | 0.00 | 0.00 | 0.00 | 56 | 1013.7 |
| 20260902121114 | 95 | 200 | 3.5 | 7.8 | 0.00 | 0.00 | 0.00 | 56 | 1013.7 |
| 20260902120933 | 95 | 165 | 3.5 | 7.8 | 0.00 | 0.00 | 0.00 | 56 | 1013.7 |
| 20260902120921 | 95 | 213 | 3.5 | 7.8 | 0.00 | 0.00 | 0.00 | 56 | 1013.7 |
| 20260902120759 | 95 | 88 | 3.5 | 7.8 | 0.00 | 0.00 | 0.00 | 56 | 1013.8 |
| 20260902120636 | 95 | 239 | 3.5 | 7.8 | 0.00 | 0.00 | 0.00 | 57 | 1013.8 |
| 20260902120239 | 95 | 196 | 3.5 | 7.8 | 0.00 | 0.00 | 0.00 | 57 | 1013.8 |
| 20260902120038 | 95 | 128 | 4.3 | 7.8 | 0.00 | 0.00 | 0.00 | 56 | 1014.0 |
| 20260902115831 | 95 | 211 | 3.5 | 7.8 | 0.00 | 0.00 | 0.00 | 56 | 1014.0 |
| 20260902115634 | 95 | 196 | 3.5 | 8.7 | 0.00 | 0.00 | 0.00 | 57 | 1014.0 |
| 20260902115432 | 95 | 121 | 4.3 | 8.7 | 0.00 | 0.00 | 0.00 | 57 | 1014.0 |
| 20260902115337 | 95 | 215 | 4.3 | 8.7 | 0.00 | 0.00 | 0.00 | 57 | 1014.1 |
| 20260902115232 | 95 | 175 | 4.3 | 8.7 | 0.00 | 0.00 | 0.00 | 57 | 1014.1 |
| 20260902115041 | 95 | 158 | 4.3 | 10.4 | 0.00 | 0.00 | 0.00 | 57 | 1014.1 |
| 20260902114953 | 94 | 229 | 4.3 | 9.6 | 0.00 | 0.00 | 0.00 | 58 | 1014.3 |
| 20260902114854 | 95 | 157 | 4.3 | 10.4 | 0.00 | 0.00 | 0.00 | 57 | 1014.1 |
| 20260902114845 | 95 | 153 | 4.3 | 10.4 | 0.00 | 0.00 | 0.00 | 57 | 1014.1 |
| 20260902114716 | 95 | 176 | 4.3 | 10.4 | 0.00 | 0.00 | 0.00 | 56 | 1014.2 |
| 20260902114602 | 95 | 206 | 3.5 | 10.4 | 0.00 | 0.00 | 0.00 | 57 | 1014.2 |
| 20260902114520 | 95 | 159 | 3.5 | 10.4 | 0.00 | 0.00 | 0.00 | 57 | 1014.2 |
| 20260902114434 | 95 | 244 | 3.5 | 10.4 | 0.00 | 0.00 | 0.00 | 57 | 1014.3 |
| 20260902114053 | 95 | 187 | 3.5 | 10.4 | 0.00 | 0.00 | 0.00 | 57 | 1014.3 |
| 20260902113924 | 95 | 180 | 4.3 | 10.4 | 0.00 | 0.00 | 0.00 | 57 | 1014.3 |
| 20260902113802 | 94 | 184 | 4.3 | 10.4 | 0.00 | 0.00 | 0.00 | 57 | 1014.3 |
| 20260902113635 | 94 | 157 | 4.3 | 8.7 | 0.00 | 0.00 | 0.00 | 57 | 1014.3 |
| 20260902113231 | 94 | 167 | 4.3 | 9.6 | 0.00 | 0.00 | 0.00 | 57 | 1014.3 |
| 20260902113031 | 94 | 242 | 4.3 | 9.6 | 0.00 | 0.00 | 0.00 | 57 | 1014.3 |
| 20260902112827 | 94 | 123 | 4.3 | 9.6 | 0.00 | 0.00 | 0.00 | 57 | 1014.3 |
| 20260902112628 | 94 | 192 | 4.3 | 9.6 | 0.00 | 0.00 | 0.00 | 56 | 1014.5 |
| 20260902112423 | 95 | 187 | 5.2 | 8.7 | 0.00 | 0.00 | 0.00 | 56 | 1014.6 |
| 20260902112334 | 95 | 153 | 5.2 | 8.7 | 0.00 | 0.00 | 0.00 | 56 | 1014.6 |
| 20260902112224 | 95 | 161 | 5.2 | 8.7 | 0.00 | 0.00 | 0.00 | 56 | 1014.6 |
| 20260902112028 | 95 | 219 | 5.2 | 8.7 | 0.00 | 0.00 | 0.00 | 56 | 1014.5 |
| 20260902111836 | 95 | 227 | 5.2 | 8.7 | 0.00 | 0.00 | 0.00 | 55 | 1014.5 |
| 20260902111827 | 95 | 248 | 5.2 | 8.7 | 0.00 | 0.00 | 0.00 | 55 | 1014.5 |
| 20260902111619 | 95 | 169 | 4.3 | 8.7 | 0.00 | 0.00 | 0.00 | 55 | 1014.5 |
| 20260902111420 | 95 | 199 | 4.3 | 8.7 | 0.00 | 0.00 | 0.00 | 54 | 1014.5 |
| 20260902111328 | 95 | 164 | 4.3 | 10.4 | 0.00 | 0.00 | 0.00 | 54 | 1014.6 |
| 20260902111219 | 95 | 171 | 4.3 | 10.4 | 0.00 | 0.00 | 0.00 | 54 | 1014.6 |
| 20260902111154 | 95 | 177 | 4.3 | 9.6 | 0.00 | 0.00 | 0.00 | 54 | 1014.7 |
| 20260902111030 | 95 | 196 | 4.3 | 10.4 | 0.00 | 0.00 | 0.00 | 54 | 1014.6 |
| 20260902110907 | 95 | 180 | 4.3 | 10.4 | 0.00 | 0.00 | 0.00 | 55 | 1014.6 |
| 20260902110856 | 95 | 191 | 4.3 | 10.4 | 0.00 | 0.00 | 0.00 | 55 | 1014.6 |
| 20260902110733 | 95 | 209 | 4.3 | 10.4 | 0.00 | 0.00 | 0.00 | 54 | 1014.6 |
| 20260902110612 | 95 | 190 | 4.3 | 10.4 | 0.00 | 0.00 | 0.00 | 54 | 1014.6 |
| 20260902110215 | 95 | 192 | 4.3 | 9.6 | 0.00 | 0.00 | 0.00 | 54 | 1014.7 |
| 20260902110016 | 95 | 133 | 4.3 | 9.6 | 0.00 | 0.00 | 0.00 | 55 | 1014.7 |
| 20260902105914 | 95 | 156 | 4.3 | 10.4 | 0.00 | 0.00 | 0.00 | 55 | 1014.7 |
| 20260902105831 | 96 | 180 | 3.5 | 8.7 | 0.00 | 0.00 | 0.00 | 54 | 1014.7 |
| 20260902105815 | 96 | 197 | 3.5 | 8.7 | 0.00 | 0.00 | 0.00 | 54 | 1014.7 |
| 20260902105643 | 96 | 218 | 4.3 | 10.4 | 0.00 | 0.00 | 0.00 | 55 | 1014.7 |
| 20260902105526 | 95 | 198 | 3.5 | 10.4 | 0.00 | 0.00 | 0.00 | 55 | 1014.7 |
| 20260902105450 | 95 | 200 | 3.5 | 10.4 | 0.00 | 0.00 | 0.00 | 55 | 1014.7 |
| 20260902105335 | 95 | 250 | 3.5 | 10.4 | 0.00 | 0.00 | 0.00 | 55 | 1014.7 |
| 20260902105214 | 95 | 168 | 3.5 | 10.4 | 0.00 | 0.00 | 0.00 | 56 | 1014.7 |
| 20260902104808 | 95 | 113 | 4.3 | 10.4 | 0.00 | 0.00 | 0.00 | 55 | 1014.7 |
| 20260902104609 | 95 | 187 | 3.5 | 10.4 | 0.00 | 0.00 | 0.00 | 55 | 1014.7 |
| 20260902104412 | 95 | 178 | 4.3 | 10.4 | 0.00 | 0.00 | 0.00 | 55 | 1014.8 |
| 20260902104318 | 95 | 111 | 4.3 | 10.4 | 0.00 | 0.00 | 0.00 | 55 | 1014.8 |
| 20260902104210 | 95 | 106 | 4.3 | 10.4 | 0.00 | 0.00 | 0.00 | 55 | 1014.7 |
| 20260902104149 | 96 | 211 | 3.5 | 7.8 | 0.00 | 0.00 | 0.00 | 55 | 1014.8 |
| 20260902104025 | 96 | 166 | 4.3 | 10.4 | 0.00 | 0.00 | 0.00 | 54 | 1014.8 |
| 20260902103912 | 96 | 225 | 4.3 | 7.8 | 0.00 | 0.00 | 0.00 | 54 | 1014.8 |
| 20260902103831 | 96 | 190 | 4.3 | 7.8 | 0.00 | 0.00 | 0.00 | 54 | 1014.8 |
| 20260902103648 | 96 | 119 | 4.3 | 7.8 | 0.00 | 0.00 | 0.00 | 54 | 1014.9 |
| 20260902103426 | 96 | 203 | 4.3 | 9.6 | 0.00 | 0.00 | 0.00 | 54 | 1014.8 |
| 20260902103330 | 96 | 202 | 4.3 | 9.6 | 0.00 | 0.00 | 0.00 | 54 | 1014.8 |
| 20260902103200 | 96 | 160 | 4.3 | 9.6 | 0.00 | 0.00 | 0.00 | 55 | 1014.8 |
| 20260902103021 | 96 | 157 | 4.3 | 9.6 | 0.00 | 0.00 | 0.00 | 55 | 1014.8 |
| 20260902102906 | 96 | 198 | 4.3 | 9.6 | 0.00 | 0.00 | 0.00 | 55 | 1014.8 |
| 20260902102849 | 96 | 214 | 4.3 | 9.6 | 0.00 | 0.00 | 0.00 | 55 | 1014.8 |
| 20260902102650 | 96 | 161 | 3.5 | 9.6 | 0.00 | 0.00 | 0.00 | 55 | 1014.8 |
| 20260902102539 | 96 | 190 | 2.6 | 7.8 | 0.00 | 0.00 | 0.00 | 55 | 1014.8 |
| 20260902102505 | 96 | 222 | 2.6 | 7.0 | 0.00 | 0.00 | 0.00 | 55 | 1014.8 |
| 20260902102342 | 96 | 155 | 2.6 | 7.0 | 0.00 | 0.00 | 0.00 | 55 | 1014.8 |
| 20260902102215 | 96 | 186 | 2.6 | 7.0 | 0.00 | 0.00 | 0.00 | 55 | 1014.8 |
| 20260902102105 | 96 | 149 | 2.6 | 7.0 | 0.00 | 0.00 | 0.00 | 55 | 1014.9 |
| 20260902102046 | 96 | 171 | 2.6 | 7.0 | 0.00 | 0.00 | 0.00 | 55 | 1014.9 |
| 20260902101910 | 96 | 207 | 2.6 | 7.8 | 0.00 | 0.00 | 0.00 | 55 | 1014.8 |
| 20260902101644 | 96 | 210 | 3.5 | 7.8 | 0.00 | 0.00 | 0.00 | 55 | 1014.8 |
| 20260902101150 | 96 | 62 | 3.5 | 7.8 | 0.00 | 0.00 | 0.00 | 55 | 1014.8 |
| 20260902100947 | 96 | 169 | 3.5 | 7.8 | 0.00 | 0.00 | 0.00 | 55 | 1014.8 |
| 20260902100827 | 96 | 247 | 3.5 | 7.8 | 0.00 | 0.00 | 0.00 | 55 | 1014.8 |
| 20260902100802 | 96 | 223 | 2.6 | 7.8 | 0.00 | 0.00 | 0.00 | 55 | 1014.8 |
| 20260902100547 | 95 | 106 | 2.6 | 7.8 | 0.00 | 0.00 | 0.00 | 55 | 1014.8 |
| 20260902100353 | 95 | 215 | 2.6 | 7.8 | 0.00 | 0.00 | 0.00 | 54 | 1014.8 |
| 20260902100316 | 95 | 196 | 2.6 | 7.8 | 0.00 | 0.00 | 0.00 | 54 | 1014.8 |
| 20260902100145 | 95 | 145 | 2.6 | 7.8 | 0.00 | 0.00 | 0.00 | 54 | 1014.8 |
| 20260902095943 | 95 | 161 | 2.6 | 6.1 | 0.00 | 0.00 | 0.00 | 55 | 1014.8 |
| 20260902095907 | 92 | 163 | 1.7 | 5.2 | 0.00 | 0.00 | 0.00 | 61 | 1015.3 |
| 20260902095817 | 95 | 159 | 2.6 | 6.1 | 0.00 | 0.00 | 0.00 | 55 | 1014.8 |
| 20260902095746 | 95 | 171 | 2.6 | 6.1 | 0.00 | 0.00 | 0.00 | 55 | 1014.8 |
| 20260902095719 | 89 | 257 | 1.7 | 4.3 | 0.00 | 0.00 | 0.00 | 64 | 1015.3 |
| 20260902095643 | 89 | 234 | 1.7 | 4.3 | 0.00 | 0.00 | 0.00 | 64 | 1015.4 |
| 20260902095543 | 95 | 169 | 2.6 | 6.1 | 0.00 | 0.00 | 0.00 | 55 | 1015.0 |
| 20260902095517 | 86 | 197 | 1.7 | 7.0 | 0.00 | 0.00 | 0.00 | 67 | 1015.5 |
| 20260902095446 | 85 | 279 | 2.6 | 5.2 | 0.00 | 0.00 | 0.00 | 68 | 1015.5 |
| 20260902095430 | 84 | 324 | 2.6 | 6.1 | 0.00 | 0.00 | 0.00 | 71 | 1015.3 |
| 20260902095415 | 83 | 333 | 1.7 | 6.1 | 0.00 | 0.00 | 0.00 | 72 | 1015.3 |
| 20260902095344 | 95 | 223 | 2.6 | 6.1 | 0.00 | 0.00 | 0.00 | 54 | 1015.0 |
| 20260902095316 | 95 | 179 | 2.6 | 6.1 | 0.00 | 0.00 | 0.00 | 53 | 1015.0 |
| 20260902095152 | 95 | 150 | 2.6 | 7.0 | 0.00 | 0.00 | 0.00 | 53 | 1015.0 |
| 20260902095014 | 95 | 159 | 2.6 | 7.0 | 0.00 | 0.00 | 0.00 | 56 | 1015.1 |
| 20260902094915 | 95 | 185 | 2.6 | 7.0 | 0.00 | 0.00 | 0.00 | 56 | 1015.0 |
| 20260902094853 | 95 | 176 | 2.6 | 7.0 | 0.00 | 0.00 | 0.00 | 56 | 1015.0 |
| 20260902094729 | 95 | 148 | 3.5 | 10.4 | 0.00 | 0.00 | 0.00 | 56 | 1015.1 |
| 20260902094609 | 95 | 119 | 3.5 | 10.4 | 0.00 | 0.00 | 0.00 | 57 | 1015.0 |
| 20260902094546 | 95 | 92 | 3.5 | 10.4 | 0.00 | 0.00 | 0.00 | 57 | 1015.0 |
| 20260902094448 | 95 | 169 | 3.5 | 10.4 | 0.00 | 0.00 | 0.00 | 56 | 1015.1 |
| 20260902094254 | 95 | 111 | 3.5 | 10.4 | 0.00 | 0.00 | 0.00 | 56 | 1015.1 |
| 20260902094156 | 95 | 163 | 3.5 | 10.4 | 0.00 | 0.00 | 0.00 | 56 | 1015.1 |
| 20260902094128 | 95 | 116 | 3.5 | 10.4 | 0.00 | 0.00 | 0.00 | 56 | 1015.1 |
| 20260902093952 | 95 | 122 | 2.6 | 7.0 | 0.00 | 0.00 | 0.00 | 57 | 1015.1 |
| 20260902093836 | 95 | 167 | 2.6 | 7.0 | 0.00 | 0.00 | 0.00 | 57 | 1015.1 |
| 20260902093814 | 95 | 107 | 2.6 | 7.0 | 0.00 | 0.00 | 0.00 | 57 | 1015.1 |
| 20260902093718 | 95 | 106 | 2.6 | 7.0 | 0.00 | 0.00 | 0.00 | 56 | 1015.1 |
| 20260902093601 | 95 | 143 | 2.6 | 7.0 | 0.00 | 0.00 | 0.00 | 57 | 1015.2 |
| 20260902093455 | 95 | 155 | 2.6 | 7.0 | 0.00 | 0.00 | 0.00 | 57 | 1015.2 |
| 20260902093438 | 95 | 171 | 2.6 | 7.0 | 0.00 | 0.00 | 0.00 | 57 | 1015.2 |
| 20260902093311 | 95 | 154 | 2.6 | 7.0 | 0.00 | 0.00 | 0.00 | 57 | 1015.2 |
| 20260902093204 | 95 | 172 | 2.6 | 5.2 | 0.00 | 0.00 | 0.00 | 56 | 1015.2 |
| 20260902093143 | 95 | 284 | 2.6 | 5.2 | 0.00 | 0.00 | 0.00 | 56 | 1015.2 |
| 20260902093041 | 95 | 225 | 2.6 | 5.2 | 0.00 | 0.00 | 0.00 | 56 | 1015.3 |
| 20260902092921 | 94 | 141 | 2.6 | 5.2 | 0.00 | 0.00 | 0.00 | 57 | 1015.3 |
| 20260902092822 | 94 | 248 | 1.7 | 5.2 | 0.00 | 0.00 | 0.00 | 57 | 1015.3 |
| 20260902092752 | 94 | 237 | 1.7 | 5.2 | 0.00 | 0.00 | 0.00 | 57 | 1015.4 |
| 20260902092644 | 94 | 211 | 1.7 | 3.5 | 0.00 | 0.00 | 0.00 | 57 | 1015.4 |
| 20260902092531 | 94 | 206 | 1.7 | 5.2 | 0.00 | 0.00 | 0.00 | 57 | 1015.4 |
| 20260902092506 | 94 | 229 | 1.7 | 5.2 | 0.00 | 0.00 | 0.00 | 57 | 1015.4 |
| 20260902092325 | 94 | 194 | 1.7 | 5.2 | 0.00 | 0.00 | 0.00 | 58 | 1015.4 |
| 20260902092154 | 94 | 184 | 2.6 | 6.1 | 0.00 | 0.00 | 0.00 | 58 | 1015.3 |
| 20260902092104 | 94 | 326 | 2.6 | 6.1 | 0.00 | 0.00 | 0.00 | 58 | 1015.3 |
| 20260902092021 | 94 | 202 | 2.6 | 6.1 | 0.00 | 0.00 | 0.00 | 58 | 1015.4 |
| 20260902091819 | 93 | 214 | 2.6 | 6.1 | 0.00 | 0.00 | 0.00 | 59 | 1015.4 |
| 20260902091614 | 93 | 235 | 1.7 | 6.1 | 0.00 | 0.00 | 0.00 | 59 | 1015.4 |
| 20260902091554 | 93 | 214 | 1.7 | 6.1 | 0.00 | 0.00 | 0.00 | 59 | 1015.3 |
| 20260902091400 | 93 | 240 | 1.7 | 6.1 | 0.00 | 0.00 | 0.00 | 59 | 1015.3 |
| 20260902091234 | 93 | 232 | 1.7 | 4.3 | 0.00 | 0.00 | 0.00 | 60 | 1015.4 |
| 20260902091138 | 92 | 159 | 0.9 | 4.3 | 0.00 | 0.00 | 0.00 | 60 | 1015.4 |
| 20260902091045 | 92 | 161 | 0.9 | 4.3 | 0.00 | 0.00 | 0.00 | 60 | 1015.4 |
| 20260902090918 | 92 | 163 | 0.9 | 3.5 | 0.00 | 0.00 | 0.00 | 60 | 1015.4 |
| 20260902090756 | 92 | 163 | 1.7 | 5.2 | 0.00 | 0.00 | 0.00 | 61 | 1015.3 |
| 20260902090357 | 92 | 142 | 1.7 | 5.2 | 0.00 | 0.00 | 0.00 | 61 | 1015.3 |
| 20260902090235 | 91 | 143 | 1.7 | 5.2 | 0.00 | 0.00 | 0.00 | 61 | 1015.3 |
| 20260902090133 | 91 | 143 | 1.7 | 5.2 | 0.00 | 0.00 | 0.00 | 61 | 1015.3 |
| 20260902090056 | 91 | 218 | 1.7 | 5.2 | 0.00 | 0.00 | 0.00 | 62 | 1015.3 |
| 20260902085913 | 91 | 171 | 1.7 | 5.2 | 0.00 | 0.00 | 0.00 | 62 | 1015.2 |
| 20260902085745 | 90 | 171 | 1.7 | 4.3 | 0.00 | 0.00 | 0.00 | 62 | 1015.2 |
| 20260902085717 | 90 | 221 | 1.7 | 4.3 | 0.00 | 0.00 | 0.00 | 62 | 1015.2 |
| 20260902085553 | 90 | 146 | 1.7 | 4.3 | 0.00 | 0.00 | 0.00 | 63 | 1015.2 |
| 20260902085407 | 90 | 277 | 1.7 | 3.5 | 0.00 | 0.00 | 0.00 | 63 | 1015.3 |
| 20260902085322 | 90 | 277 | 1.7 | 3.5 | 0.00 | 0.00 | 0.00 | 63 | 1015.3 |
| 20260902085240 | 90 | 263 | 1.7 | 3.5 | 0.00 | 0.00 | 0.00 | 63 | 1015.2 |
| 20260902085036 | 89 | 215 | 1.7 | 3.5 | 0.00 | 0.00 | 0.00 | 63 | 1015.2 |
| 20260902084900 | 89 | 281 | 1.7 | 3.5 | 0.00 | 0.00 | 0.00 | 63 | 1015.2 |
| 20260902084728 | 89 | 285 | 1.7 | 4.3 | 0.00 | 0.00 | 0.00 | 64 | 1015.2 |
| 20260902084459 | 89 | 272 | 1.7 | 4.3 | 0.00 | 0.00 | 0.00 | 63 | 1015.3 |
| 20260902084047 | 89 | 264 | 1.7 | 4.3 | 0.00 | 0.00 | 0.00 | 64 | 1015.3 |
| 20260902083823 | 89 | 254 | 1.7 | 4.3 | 0.00 | 0.00 | 0.00 | 63 | 1015.3 |
| 20260902083620 | 89 | 234 | 1.7 | 4.3 | 0.00 | 0.00 | 0.00 | 64 | 1015.4 |
| 20260902083238 | 89 | 208 | 1.7 | 4.3 | 0.00 | 0.00 | 0.00 | 64 | 1015.3 |
| 20260902083121 | 88 | 159 | 1.7 | 4.3 | 0.00 | 0.00 | 0.00 | 64 | 1015.3 |
| 20260902083045 | 88 | 187 | 1.7 | 4.3 | 0.00 | 0.00 | 0.00 | 64 | 1015.3 |
| 20260902082958 | 88 | 222 | 1.7 | 4.3 | 0.00 | 0.00 | 0.00 | 65 | 1015.3 |
| 20260902082839 | 88 | 260 | 0.9 | 3.5 | 0.00 | 0.00 | 0.00 | 65 | 1015.3 |
| 20260902082731 | 88 | 263 | 0.9 | 3.5 | 0.00 | 0.00 | 0.00 | 65 | 1015.3 |
| 20260902082719 | 88 | 275 | 0.9 | 3.5 | 0.00 | 0.00 | 0.00 | 65 | 1015.3 |
| 20260902082613 | 87 | 350 | 0.9 | 3.5 | 0.00 | 0.00 | 0.00 | 66 | 1015.3 |
| 20260902082500 | 87 | 299 | 1.7 | 3.5 | 0.00 | 0.00 | 0.00 | 66 | 1015.3 |
| 20260902082431 | 87 | 310 | 1.7 | 3.5 | 0.00 | 0.00 | 0.00 | 66 | 1015.3 |
| 20260902082337 | 87 | 25 | 1.7 | 5.2 | 0.00 | 0.00 | 0.00 | 66 | 1015.3 |
| 20260902082233 | 87 | 0 | 1.7 | 5.2 | 0.00 | 0.00 | 0.00 | 66 | 1015.3 |
| 20260902082138 | 87 | 346 | 1.7 | 5.2 | 0.00 | 0.00 | 0.00 | 66 | 1015.3 |
| 20260902082118 | 87 | 355 | 1.7 | 5.2 | 0.00 | 0.00 | 0.00 | 66 | 1015.3 |
| 20260902082018 | 87 | 281 | 1.7 | 7.0 | 0.00 | 0.00 | 0.00 | 66 | 1015.5 |
| 20260902081859 | 87 | 281 | 1.7 | 7.0 | 0.00 | 0.00 | 0.00 | 66 | 1015.5 |
| 20260902081835 | 87 | 281 | 1.7 | 7.0 | 0.00 | 0.00 | 0.00 | 66 | 1015.5 |
| 20260902081732 | 87 | 333 | 1.7 | 7.0 | 0.00 | 0.00 | 0.00 | 66 | 1015.5 |
| 20260902081615 | 86 | 260 | 1.7 | 7.0 | 0.00 | 0.00 | 0.00 | 67 | 1015.5 |
| 20260902081248 | 86 | 297 | 1.7 | 7.0 | 0.00 | 0.00 | 0.00 | 67 | 1015.5 |
| 20260902081132 | 86 | 269 | 1.7 | 6.1 | 0.00 | 0.00 | 0.00 | 67 | 1015.5 |
| 20260902081020 | 85 | 275 | 1.7 | 5.2 | 0.00 | 0.00 | 0.00 | 67 | 1015.5 |
| 20260902081001 | 85 | 292 | 1.7 | 5.2 | 0.00 | 0.00 | 0.00 | 67 | 1015.5 |
| 20260902080856 | 85 | 141 | 2.6 | 5.2 | 0.00 | 0.00 | 0.00 | 67 | 1015.6 |
| 20260902080734 | 85 | 335 | 2.6 | 5.2 | 0.00 | 0.00 | 0.00 | 67 | 1015.5 |
| 20260902080336 | 85 | 323 | 2.6 | 5.2 | 0.00 | 0.00 | 0.00 | 68 | 1015.5 |
| 20260902080050 | 85 | 355 | 2.6 | 5.2 | 0.00 | 0.00 | 0.00 | 68 | 1015.5 |
| 20260902075325 | 85 | 267 | 2.6 | 5.2 | 0.00 | 0.00 | 0.00 | 68 | 1015.5 |
| 20260902074418 | 85 | 287 | 2.6 | 5.2 | 0.00 | 0.00 | 0.00 | 68 | 1015.5 |
| 20260902073833 | 85 | 271 | 2.6 | 6.1 | 0.00 | 0.00 | 0.00 | 68 | 1015.5 |
| 20260902073714 | 85 | 322 | 2.6 | 6.1 | 0.00 | 0.00 | 0.00 | 68 | 1015.4 |
| 20260902073532 | 85 | 322 | 2.6 | 6.1 | 0.00 | 0.00 | 0.00 | 69 | 1015.4 |
| 20260902073443 | 84 | 317 | 2.6 | 7.0 | 0.00 | 0.00 | 0.00 | 69 | 1015.4 |
| 20260902073256 | 84 | 279 | 3.5 | 7.0 | 0.00 | 0.00 | 0.00 | 68 | 1015.4 |
| 20260902073121 | 84 | 229 | 3.5 | 7.0 | 0.00 | 0.00 | 0.00 | 69 | 1015.5 |
| 20260902073059 | 84 | 284 | 3.5 | 7.0 | 0.00 | 0.00 | 0.00 | 69 | 1015.5 |
| 20260902072915 | 84 | 289 | 3.5 | 7.0 | 0.00 | 0.00 | 0.00 | 69 | 1015.4 |
| 20260902072725 | 84 | 288 | 3.5 | 7.0 | 0.00 | 0.00 | 0.00 | 69 | 1015.4 |
| 20260902072638 | 84 | 278 | 3.5 | 7.0 | 0.00 | 0.00 | 0.00 | 69 | 1015.4 |
| 20260902072542 | 84 | 269 | 3.5 | 6.1 | 0.00 | 0.00 | 0.00 | 69 | 1015.4 |
| 20260902072354 | 84 | 302 | 2.6 | 6.1 | 0.00 | 0.00 | 0.00 | 70 | 1015.4 |
| 20260902072156 | 84 | 321 | 2.6 | 6.1 | 0.00 | 0.00 | 0.00 | 71 | 1015.3 |
| 20260902071745 | 84 | 313 | 2.6 | 6.1 | 0.00 | 0.00 | 0.00 | 71 | 1015.3 |
| 20260902071610 | 84 | 304 | 1.7 | 6.1 | 0.00 | 0.00 | 0.00 | 71 | 1015.3 |
| 20260902071225 | 83 | 318 | 1.7 | 6.1 | 0.00 | 0.00 | 0.00 | 72 | 1015.3 |
| 20260902070949 | 83 | 307 | 1.7 | 6.1 | 0.00 | 0.00 | 0.00 | 73 | 1015.3 |
| 20260902070806 | 83 | 307 | 1.7 | 4.3 | 0.00 | 0.00 | 0.00 | 73 | 1015.4 |
| 20260902070751 | 83 | 306 | 1.7 | 4.3 | 0.00 | 0.00 | 0.00 | 73 | 1015.4 |
| 20260902070551 | 83 | 245 | 1.7 | 3.5 | 0.00 | 0.00 | 0.00 | 74 | 1015.3 |
| 20260902070353 | 83 | 291 | 1.7 | 3.5 | 0.00 | 0.00 | 0.00 | 75 | 1015.3 |
| 20260902070347 | 82 | 79 | 0.0 | 3.5 | 0.00 | 0.00 | 0.00 | 79 | 1015.4 |
| 20260902070248 | 83 | 355 | 1.7 | 3.5 | 0.00 | 0.00 | 0.00 | 75 | 1015.3 |
| 20260902070207 | 83 | 304 | 1.7 | 3.5 | 0.00 | 0.00 | 0.00 | 76 | 1015.3 |
| 20260902070030 | 83 | 302 | 0.9 | 3.5 | 0.00 | 0.00 | 0.00 | 76 | 1015.4 |
| 20260902065844 | 83 | 276 | 0.9 | 3.5 | 0.00 | 0.00 | 0.00 | 77 | 1015.4 |
| 20260902065828 | 83 | 288 | 0.9 | 3.5 | 0.00 | 0.00 | 0.00 | 77 | 1015.4 |
| 20260902065721 | 82 | 330 | 0.9 | 3.5 | 0.00 | 0.00 | 0.00 | 78 | 1015.4 |
| 20260902065554 | 82 | 26 | 0.9 | 3.5 | 0.00 | 0.00 | 0.00 | 79 | 1015.4 |
| 20260902065152 | 82 | 69 | 0.0 | 3.5 | 0.00 | 0.00 | 0.00 | 79 | 1015.5 |
| 20260902064946 | 82 | 273 | 0.0 | 1.7 | 0.00 | 0.00 | 0.00 | 80 | 1015.5 |
| 20260902064737 | 81 | 273 | 0.0 | 1.7 | 0.00 | 0.00 | 0.00 | 80 | 1015.5 |
| 20260902064549 | 81 | 249 | 0.0 | 1.7 | 0.00 | 0.00 | 0.00 | 80 | 1015.5 |
| 20260902064345 | 81 | 249 | 0.9 | 1.7 | 0.00 | 0.00 | 0.00 | 81 | 1015.6 |
| 20260902064248 | 81 | 249 | 0.9 | 1.7 | 0.00 | 0.00 | 0.00 | 81 | 1015.6 |
| 20260902064149 | 81 | 250 | 0.9 | 2.6 | 0.00 | 0.00 | 0.00 | 81 | 1015.6 |
| 20260902063945 | 80 | 250 | 0.9 | 2.6 | 0.00 | 0.00 | 0.00 | 82 | 1015.6 |
| 20260902063744 | 80 | 304 | 0.9 | 2.6 | 0.00 | 0.00 | 0.00 | 82 | 1015.6 |
| 20260902063736 | 80 | 303 | 0.9 | 2.6 | 0.00 | 0.00 | 0.00 | 82 | 1015.6 |
| 20260902063540 | 80 | 304 | 0.9 | 2.6 | 0.00 | 0.00 | 0.00 | 82 | 1015.5 |
| 20260902063349 | 80 | 222 | 0.9 | 2.6 | 0.00 | 0.00 | 0.00 | 83 | 1015.5 |
| 20260902063238 | 80 | 214 | 0.9 | 2.6 | 0.00 | 0.00 | 0.00 | 83 | 1015.4 |
| 20260902063135 | 80 | 315 | 0.9 | 2.6 | 0.00 | 0.00 | 0.00 | 83 | 1015.4 |
| 20260902062939 | 80 | 260 | 0.9 | 2.6 | 0.00 | 0.00 | 0.00 | 83 | 1015.4 |
| 20260902062742 | 79 | 288 | 0.9 | 3.5 | 0.00 | 0.00 | 0.00 | 84 | 1015.4 |
| 20260902062531 | 79 | 288 | 1.7 | 3.5 | 0.00 | 0.00 | 0.00 | 84 | 1015.4 |
| 20260902062347 | 79 | 288 | 1.7 | 3.5 | 0.00 | 0.00 | 0.00 | 84 | 1015.4 |
| 20260902062300 | 79 | 288 | 1.7 | 3.5 | 0.00 | 0.00 | 0.00 | 84 | 1015.5 |
| 20260902062144 | 78 | 221 | 2.6 | 4.3 | 0.00 | 0.00 | 0.00 | 86 | 1015.5 |
| 20260902062131 | 79 | 226 | 1.7 | 3.5 | 0.00 | 0.00 | 0.00 | 84 | 1015.5 |
| 20260902062119 | 78 | 217 | 2.6 | 4.3 | 0.00 | 0.00 | 0.00 | 86 | 1015.5 |
| 20260902061938 | 79 | 226 | 1.7 | 3.5 | 0.00 | 0.00 | 0.00 | 85 | 1015.5 |
| 20260902061800 | 79 | 234 | 1.7 | 3.5 | 0.00 | 0.00 | 0.00 | 85 | 1015.4 |
| 20260902061643 | 79 | 234 | 1.7 | 3.5 | 0.00 | 0.00 | 0.00 | 85 | 1015.4 |
| 20260902061440 | 79 | 246 | 1.7 | 3.5 | 0.00 | 0.00 | 0.00 | 85 | 1015.5 |
| 20260902061324 | 79 | 246 | 1.7 | 3.5 | 0.00 | 0.00 | 0.00 | 85 | 1015.5 |
| 20260902061230 | 79 | 246 | 1.7 | 3.5 | 0.00 | 0.00 | 0.00 | 86 | 1015.5 |
| 20260902061034 | 78 | 222 | 1.7 | 4.3 | 0.00 | 0.00 | 0.00 | 86 | 1015.5 |
| 20260902060848 | 78 | 222 | 1.7 | 4.3 | 0.00 | 0.00 | 0.00 | 86 | 1015.5 |
| 20260902060813 | 78 | 217 | 1.7 | 4.3 | 0.00 | 0.00 | 0.00 | 86 | 1015.5 |
| 20260902060656 | 78 | 224 | 2.6 | 4.3 | 0.00 | 0.00 | 0.00 | 86 | 1015.5 |
| 20260902060525 | 78 | 219 | 2.6 | 4.3 | 0.00 | 0.00 | 0.00 | 86 | 1015.5 |
| 20260902060119 | 78 | 217 | 2.6 | 4.3 | 0.00 | 0.00 | 0.00 | 86 | 1015.5 |
| 20260902055912 | 78 | 223 | 2.6 | 4.3 | 0.00 | 0.00 | 0.00 | 87 | 1015.5 |
| 20260902055734 | 78 | 238 | 2.6 | 4.3 | 0.00 | 0.00 | 0.00 | 87 | 1015.4 |
| 20260902055710 | 78 | 238 | 2.6 | 4.3 | 0.00 | 0.00 | 0.00 | 87 | 1015.4 |
| 20260902055509 | 78 | 225 | 2.6 | 4.3 | 0.00 | 0.00 | 0.00 | 87 | 1015.4 |
| 20260902055307 | 78 | 232 | 2.6 | 4.3 | 0.00 | 0.00 | 0.00 | 88 | 1015.3 |
| 20260902055221 | 78 | 250 | 1.7 | 4.3 | 0.00 | 0.00 | 0.00 | 88 | 1015.3 |
| 20260902055118 | 78 | 221 | 1.7 | 4.3 | 0.00 | 0.00 | 0.00 | 88 | 1015.4 |
| 20260902054910 | 78 | 227 | 0.9 | 3.5 | 0.00 | 0.00 | 0.00 | 88 | 1015.4 |
| 20260902054728 | 77 | 215 | 0.9 | 3.5 | 0.00 | 0.00 | 0.00 | 88 | 1015.4 |
| 20260902054713 | 77 | 240 | 0.9 | 3.5 | 0.00 | 0.00 | 0.00 | 88 | 1015.4 |
| 20260902054506 | 77 | 225 | 0.0 | 2.6 | 0.00 | 0.00 | 0.00 | 88 | 1015.3 |
| 20260902054316 | 77 | 290 | 0.0 | 0.0 | 0.00 | 0.00 | 0.00 | 88 | 1015.4 |
| 20260902054216 | 77 | 290 | 0.0 | 0.0 | 0.00 | 0.00 | 0.00 | 88 | 1015.4 |
| 20260902054117 | 77 | 290 | 0.0 | 0.0 | 0.00 | 0.00 | 0.00 | 89 | 1015.4 |
| 20260902053906 | 77 | 290 | 0.0 | 0.0 | 0.00 | 0.00 | 0.00 | 89 | 1015.4 |
| 20260902053707 | 77 | 290 | 0.0 | 0.0 | 0.00 | 0.00 | 0.00 | 89 | 1015.3 |
| 20260902053506 | 77 | 290 | 0.0 | 0.0 | 0.00 | 0.00 | 0.00 | 89 | 1015.3 |
| 20260902053323 | 76 | 290 | 0.0 | 0.0 | 0.00 | 0.00 | 0.00 | 89 | 1015.3 |
| 20260902053234 | 76 | 290 | 0.0 | 0.0 | 0.00 | 0.00 | 0.00 | 89 | 1015.3 |
| 20260902053104 | 76 | 290 | 0.0 | 0.0 | 0.00 | 0.00 | 0.00 | 89 | 1015.3 |
| 20260902052909 | 76 | 290 | 0.0 | 0.0 | 0.00 | 0.00 | 0.00 | 89 | 1015.3 |
| 20260902052720 | 76 | 290 | 0.0 | 0.0 | 0.00 | 0.00 | 0.00 | 89 | 1015.3 |
| 20260902052704 | 76 | 290 | 0.0 | 0.0 | 0.00 | 0.00 | 0.00 | 89 | 1015.3 |
| 20260902052505 | 76 | 290 | 0.0 | 0.0 | 0.00 | 0.00 | 0.00 | 89 | 1015.3 |
| 20260902052307 | 76 | 290 | 0.0 | 0.0 | 0.00 | 0.00 | 0.00 | 89 | 1015.3 |
| 20260902052139 | 76 | 290 | 0.0 | 0.0 | 0.00 | 0.00 | 0.00 | 89 | 1015.3 |
| 20260902052102 | 76 | 290 | 0.0 | 0.0 | 0.00 | 0.00 | 0.00 | 89 | 1015.3 |
| 20260902051901 | 76 | 290 | 0.0 | 0.0 | 0.00 | 0.00 | 0.00 | 89 | 1015.3 |
| 20260902051739 | 76 | 290 | 0.0 | 0.0 | 0.00 | 0.00 | 0.00 | 89 | 1015.3 |
| 20260902051706 | 76 | 290 | 0.0 | 0.0 | 0.00 | 0.00 | 0.00 | 89 | 1015.3 |
| 20260902051455 | 76 | 290 | 0.0 | 0.0 | 0.00 | 0.00 | 0.00 | 89 | 1015.2 |
| 20260902051446 | 76 | 290 | 0.0 | 0.0 | 0.00 | 0.00 | 0.00 | 89 | 1015.2 |
| 20260902051305 | 76 | 290 | 0.0 | 0.0 | 0.00 | 0.00 | 0.00 | 89 | 1015.3 |
| 20260902051225 | 76 | 290 | 0.0 | 0.0 | 0.00 | 0.00 | 0.00 | 89 | 1015.3 |
| 20260902051138 | 76 | 290 | 0.0 | 0.0 | 0.00 | 0.00 | 0.00 | 89 | 1015.3 |
| 20260902051003 | 76 | 290 | 0.0 | 0.0 | 0.00 | 0.00 | 0.00 | 89 | 1015.3 |
| 20260902050843 | 76 | 290 | 0.0 | 0.0 | 0.00 | 0.00 | 0.00 | 89 | 1015.2 |
| 20260902050423 | 76 | 290 | 0.0 | 0.0 | 0.00 | 0.00 | 0.00 | 89 | 1015.3 |
| 20260902050223 | 76 | 290 | 0.0 | 0.0 | 0.00 | 0.00 | 0.00 | 89 | 1015.3 |
| 20260902050121 | 76 | 290 | 0.0 | 0.0 | 0.00 | 0.00 | 0.00 | 89 | 1015.3 |
| 20260902050023 | 76 | 290 | 0.0 | 0.0 | 0.00 | 0.00 | 0.00 | 89 | 1015.2 |
| 20260902045812 | 76 | 290 | 0.0 | 0.0 | 0.00 | 0.00 | 0.00 | 89 | 1015.2 |
| 20260902045611 | 76 | 290 | 0.0 | 0.0 | 0.00 | 0.00 | 0.00 | 89 | 1015.3 |
| 20260902045413 | 76 | 290 | 0.0 | 0.0 | 0.00 | 0.00 | 0.00 | 89 | 1015.2 |
| 20260902045207 | 76 | 290 | 0.0 | 0.0 | 0.00 | 0.00 | 0.00 | 89 | 1015.3 |
| 20260902045111 | 76 | 290 | 0.0 | 0.0 | 0.00 | 0.00 | 0.00 | 89 | 1015.2 |
| 20260902045007 | 76 | 290 | 0.0 | 0.0 | 0.00 | 0.00 | 0.00 | 89 | 1015.2 |
| 20260902044802 | 76 | 290 | 0.0 | 0.0 | 0.00 | 0.00 | 0.00 | 89 | 1015.2 |
| 20260902044611 | 76 | 290 | 0.0 | 0.0 | 0.00 | 0.00 | 0.00 | 89 | 1015.2 |
| 20260902044408 | 76 | 290 | 0.0 | 0.0 | 0.00 | 0.00 | 0.00 | 88 | 1015.0 |
| 20260902044206 | 76 | 319 | 0.0 | 0.0 | 0.00 | 0.00 | 0.00 | 88 | 1015.0 |
| 20260902044108 | 76 | 319 | 0.0 | 0.0 | 0.00 | 0.00 | 0.00 | 88 | 1015.0 |
| 20260902043956 | 76 | 319 | 0.0 | 0.0 | 0.00 | 0.00 | 0.00 | 88 | 1015.0 |
| 20260902043752 | 76 | 319 | 0.0 | 0.0 | 0.00 | 0.00 | 0.00 | 88 | 1015.0 |
| 20260902043612 | 76 | 319 | 0.0 | 0.0 | 0.00 | 0.00 | 0.00 | 88 | 1015.0 |
| 20260902043550 | 76 | 319 | 0.0 | 0.0 | 0.00 | 0.00 | 0.00 | 88 | 1015.0 |
| 20260902043336 | 76 | 319 | 0.0 | 0.0 | 0.00 | 0.00 | 0.00 | 88 | 1015.0 |
| 20260902043106 | 76 | 319 | 0.0 | 0.0 | 0.00 | 0.00 | 0.00 | 88 | 1015.0 |
| 20260902042938 | 76 | 319 | 0.0 | 0.0 | 0.00 | 0.00 | 0.00 | 88 | 1014.9 |
| 20260902042734 | 76 | 319 | 0.0 | 0.0 | 0.00 | 0.00 | 0.00 | 88 | 1015.0 |
| 20260902042611 | 76 | 319 | 0.0 | 0.0 | 0.00 | 0.00 | 0.00 | 88 | 1014.9 |
| 20260902042531 | 76 | 319 | 0.0 | 0.0 | 0.00 | 0.00 | 0.00 | 88 | 1014.9 |
| 20260902042335 | 76 | 319 | 0.0 | 0.0 | 0.00 | 0.00 | 0.00 | 88 | 1014.9 |
| 20260902042112 | 76 | 319 | 0.0 | 0.0 | 0.00 | 0.00 | 0.00 | 88 | 1014.9 |
| 20260902041914 | 76 | 319 | 0.0 | 0.0 | 0.00 | 0.00 | 0.00 | 88 | 1015.0 |
| 20260902041706 | 76 | 319 | 0.0 | 0.0 | 0.00 | 0.00 | 0.00 | 88 | 1015.0 |
| 20260902041604 | 76 | 319 | 0.0 | 0.0 | 0.00 | 0.00 | 0.00 | 88 | 1015.0 |
| 20260902041506 | 76 | 319 | 0.0 | 0.0 | 0.00 | 0.00 | 0.00 | 88 | 1015.0 |
| 20260902041315 | 76 | 319 | 0.0 | 0.0 | 0.00 | 0.00 | 0.00 | 88 | 1015.0 |
| 20260902041111 | 76 | 319 | 0.0 | 0.0 | 0.00 | 0.00 | 0.00 | 88 | 1014.9 |
| 20260902041059 | 76 | 319 | 0.0 | 0.0 | 0.00 | 0.00 | 0.00 | 88 | 1014.9 |
| 20260902040905 | 76 | 319 | 0.0 | 0.0 | 0.00 | 0.00 | 0.00 | 88 | 1014.9 |
| 20260902040659 | 76 | 319 | 0.0 | 0.0 | 0.00 | 0.00 | 0.00 | 88 | 1014.9 |
| 20260902040643 | 76 | 294 | 0.0 | 1.7 | 0.00 | 0.00 | 0.00 | 86 | 1014.7 |
| 20260902040546 | 76 | 319 | 0.0 | 0.0 | 0.00 | 0.00 | 0.00 | 88 | 1014.9 |
| 20260902040534 | 78 | 313 | 0.0 | 1.7 | 0.00 | 0.00 | 0.00 | 84 | 1014.7 |
| 20260902040516 | 78 | 313 | 0.9 | 3.5 | 0.00 | 0.00 | 0.00 | 84 | 1014.5 |
| 20260902040500 | 76 | 319 | 0.0 | 0.0 | 0.00 | 0.00 | 0.00 | 88 | 1014.9 |
| 20260902040340 | 76 | 319 | 0.0 | 0.0 | 0.00 | 0.00 | 0.00 | 87 | 1014.9 |
| 20260902040207 | 76 | 319 | 0.0 | 0.0 | 0.00 | 0.00 | 0.00 | 87 | 1014.9 |
| 20260902040038 | 76 | 319 | 0.0 | 0.0 | 0.00 | 0.00 | 0.00 | 87 | 1014.9 |
| 20260902035754 | 77 | 322 | 0.9 | 2.6 | 0.00 | 0.00 | 0.00 | 85 | 1014.7 |
| 20260902035655 | 77 | 298 | 0.0 | 2.6 | 0.00 | 0.00 | 0.00 | 85 | 1014.6 |
| 20260902035641 | 76 | 319 | 0.0 | 0.0 | 0.00 | 0.00 | 0.00 | 87 | 1014.9 |
| 20260902035552 | 76 | 319 | 0.0 | 0.0 | 0.00 | 0.00 | 0.00 | 87 | 1014.8 |
| 20260902035446 | 76 | 319 | 0.0 | 0.0 | 0.00 | 0.00 | 0.00 | 87 | 1014.8 |
| 20260902035355 | 78 | 298 | 0.9 | 2.6 | 0.00 | 0.00 | 0.00 | 84 | 1014.5 |
| 20260902035305 | 76 | 319 | 0.0 | 0.0 | 0.00 | 0.00 | 0.00 | 87 | 1014.9 |
| 20260902035141 | 76 | 319 | 0.0 | 0.0 | 0.00 | 0.00 | 0.00 | 87 | 1014.8 |
| 20260902035016 | 76 | 319 | 0.0 | 0.0 | 0.00 | 0.00 | 0.00 | 87 | 1014.8 |
| 20260902034857 | 76 | 319 | 0.0 | 0.0 | 0.00 | 0.00 | 0.00 | 87 | 1014.8 |
| 20260902034810 | 76 | 319 | 0.0 | 0.9 | 0.00 | 0.00 | 0.00 | 87 | 1014.8 |
| 20260902034737 | 76 | 319 | 0.0 | 1.7 | 0.00 | 0.00 | 0.00 | 87 | 1014.8 |
| 20260902034631 | 76 | 319 | 0.0 | 1.7 | 0.00 | 0.00 | 0.00 | 87 | 1014.8 |
| 20260902034508 | 76 | 319 | 0.9 | 1.7 | 0.00 | 0.00 | 0.00 | 87 | 1014.8 |
| 20260902034038 | 76 | 319 | 0.9 | 1.7 | 0.00 | 0.00 | 0.00 | 87 | 1014.8 |
| 20260902033833 | 76 | 319 | 0.9 | 1.7 | 0.00 | 0.00 | 0.00 | 87 | 1014.8 |
| 20260902033728 | 76 | 319 | 0.9 | 1.7 | 0.00 | 0.00 | 0.00 | 86 | 1014.8 |
| 20260902033652 | 76 | 319 | 0.9 | 1.7 | 0.00 | 0.00 | 0.00 | 86 | 1014.8 |
| 20260902033526 | 76 | 319 | 0.9 | 1.7 | 0.00 | 0.00 | 0.00 | 87 | 1014.8 |
| 20260902033402 | 76 | 319 | 0.9 | 2.6 | 0.00 | 0.00 | 0.00 | 86 | 1014.8 |
| 20260902033251 | 76 | 319 | 0.9 | 2.6 | 0.00 | 0.00 | 0.00 | 86 | 1014.7 |
| 20260902033127 | 76 | 319 | 0.9 | 2.6 | 0.00 | 0.00 | 0.00 | 86 | 1014.7 |
| 20260902033025 | 76 | 319 | 0.9 | 2.6 | 0.00 | 0.00 | 0.00 | 86 | 1014.7 |
| 20260902032808 | 76 | 319 | 0.9 | 2.6 | 0.00 | 0.00 | 0.00 | 86 | 1014.7 |
| 20260902032526 | 76 | 319 | 0.0 | 2.6 | 0.00 | 0.00 | 0.00 | 86 | 1014.7 |
| 20260902032020 | 76 | 298 | 0.0 | 1.7 | 0.00 | 0.00 | 0.00 | 86 | 1014.7 |
| 20260902031900 | 76 | 298 | 0.0 | 1.7 | 0.00 | 0.00 | 0.00 | 86 | 1014.7 |
| 20260902031732 | 77 | 298 | 0.0 | 1.7 | 0.00 | 0.00 | 0.00 | 86 | 1014.6 |
| 20260902031657 | 77 | 298 | 0.9 | 1.7 | 0.00 | 0.00 | 0.00 | 86 | 1014.6 |
| 20260902031348 | 77 | 298 | 0.9 | 1.7 | 0.00 | 0.00 | 0.00 | 86 | 1014.6 |
| 20260902031227 | 77 | 298 | 0.9 | 1.7 | 0.00 | 0.00 | 0.00 | 86 | 1014.6 |
| 20260902031101 | 77 | 298 | 0.9 | 1.7 | 0.00 | 0.00 | 0.00 | 86 | 1014.6 |
| 20260902031046 | 77 | 299 | 0.9 | 1.7 | 0.00 | 0.00 | 0.00 | 86 | 1014.6 |
| 20260902030903 | 77 | 298 | 0.9 | 2.6 | 0.00 | 0.00 | 0.00 | 86 | 1014.6 |
| 20260902030744 | 77 | 298 | 0.9 | 2.6 | 0.00 | 0.00 | 0.00 | 85 | 1014.5 |
| 20260902030708 | 77 | 298 | 0.9 | 2.6 | 0.00 | 0.00 | 0.00 | 85 | 1014.5 |
| 20260902030616 | 77 | 299 | 0.9 | 2.6 | 0.00 | 0.00 | 0.00 | 85 | 1014.6 |
| 20260902030443 | 77 | 298 | 0.9 | 2.6 | 0.00 | 0.00 | 0.00 | 85 | 1014.6 |
| 20260902030041 | 77 | 322 | 0.9 | 2.6 | 0.00 | 0.00 | 0.00 | 85 | 1014.7 |
| 20260902025900 | 77 | 338 | 0.9 | 2.6 | 0.00 | 0.00 | 0.00 | 85 | 1014.5 |
| 20260902025722 | 77 | 313 | 1.7 | 2.6 | 0.00 | 0.00 | 0.00 | 85 | 1014.5 |
| 20260902025654 | 77 | 298 | 1.7 | 2.6 | 0.00 | 0.00 | 0.00 | 85 | 1014.5 |
| 20260902025554 | 77 | 298 | 0.9 | 2.6 | 0.00 | 0.00 | 0.00 | 85 | 1014.5 |
| 20260902025432 | 77 | 319 | 0.9 | 2.6 | 0.00 | 0.00 | 0.00 | 85 | 1014.5 |
| 20260902025253 | 77 | 323 | 0.9 | 2.6 | 0.00 | 0.00 | 0.00 | 85 | 1014.5 |
| 20260902025227 | 77 | 296 | 0.9 | 2.6 | 0.00 | 0.00 | 0.00 | 85 | 1014.5 |
| 20260902025059 | 77 | 298 | 0.0 | 2.6 | 0.00 | 0.00 | 0.00 | 85 | 1014.6 |
| 20260902024920 | 77 | 298 | 0.0 | 2.6 | 0.00 | 0.00 | 0.00 | 85 | 1014.6 |
| 20260902024515 | 77 | 298 | 0.0 | 0.9 | 0.00 | 0.00 | 0.00 | 85 | 1014.6 |
| 20260902024354 | 77 | 298 | 0.0 | 0.9 | 0.00 | 0.00 | 0.00 | 85 | 1014.6 |
| 20260902024229 | 78 | 298 | 0.0 | 1.7 | 0.00 | 0.00 | 0.00 | 85 | 1014.7 |
| 20260902024211 | 78 | 298 | 0.0 | 1.7 | 0.00 | 0.00 | 0.00 | 85 | 1014.7 |
| 20260902024034 | 78 | 298 | 0.9 | 2.6 | 0.00 | 0.00 | 0.00 | 85 | 1014.6 |
| 20260902023859 | 78 | 298 | 0.9 | 2.6 | 0.00 | 0.00 | 0.00 | 84 | 1014.6 |
| 20260902023507 | 78 | 298 | 0.9 | 2.6 | 0.00 | 0.00 | 0.00 | 84 | 1014.6 |
| 20260902023302 | 78 | 298 | 0.9 | 2.6 | 0.00 | 0.00 | 0.00 | 84 | 1014.7 |
| 20260902023134 | 78 | 298 | 0.9 | 2.6 | 0.00 | 0.00 | 0.00 | 84 | 1014.7 |
| 20260902023046 | 78 | 298 | 0.9 | 2.6 | 0.00 | 0.00 | 0.00 | 84 | 1014.7 |
| 20260902022808 | 78 | 330 | 0.0 | 2.6 | 0.00 | 0.00 | 0.00 | 84 | 1014.7 |
| 20260902022609 | 78 | 313 | 0.0 | 0.0 | 0.00 | 0.00 | 0.00 | 84 | 1014.7 |
| 20260902022546 | 78 | 313 | 0.0 | 0.9 | 0.00 | 0.00 | 0.00 | 84 | 1014.7 |
| 20260902022445 | 78 | 313 | 0.0 | 1.7 | 0.00 | 0.00 | 0.00 | 84 | 1014.6 |
| 20260902022328 | 78 | 313 | 0.0 | 1.7 | 0.00 | 0.00 | 0.00 | 84 | 1014.6 |
| 20260902021940 | 78 | 313 | 0.0 | 1.7 | 0.00 | 0.00 | 0.00 | 84 | 1014.7 |
| 20260902021819 | 78 | 313 | 0.9 | 1.7 | 0.00 | 0.00 | 0.00 | 84 | 1014.7 |
| 20260902021642 | 78 | 313 | 0.9 | 1.7 | 0.00 | 0.00 | 0.00 | 84 | 1014.6 |
| 20260902021616 | 78 | 313 | 0.9 | 1.7 | 0.00 | 0.00 | 0.00 | 84 | 1014.7 |
| 20260902021228 | 78 | 313 | 0.9 | 1.7 | 0.00 | 0.00 | 0.00 | 84 | 1014.7 |
| 20260902021059 | 78 | 313 | 0.9 | 1.7 | 0.00 | 0.00 | 0.00 | 84 | 1014.7 |
| 20260902020947 | 78 | 313 | 0.9 | 1.7 | 0.00 | 0.00 | 0.00 | 84 | 1014.6 |
| 20260902020900 | 78 | 313 | 0.9 | 1.7 | 0.00 | 0.00 | 0.00 | 84 | 1014.6 |
| 20260902020746 | 78 | 313 | 0.9 | 2.6 | 0.00 | 0.00 | 0.00 | 84 | 1014.6 |
| 20260902020628 | 78 | 313 | 0.9 | 3.5 | 0.00 | 0.00 | 0.00 | 84 | 1014.5 |
| 20260902020209 | 78 | 313 | 0.9 | 3.5 | 0.00 | 0.00 | 0.00 | 83 | 1014.5 |
| 20260902020012 | 78 | 313 | 1.7 | 3.5 | 0.00 | 0.00 | 0.00 | 83 | 1014.4 |
| 20260902015853 | 78 | 313 | 1.7 | 3.5 | 0.00 | 0.00 | 0.00 | 83 | 1014.4 |
| 20260902015805 | 78 | 313 | 1.7 | 5.2 | 0.00 | 0.00 | 0.00 | 83 | 1014.4 |
| 20260902015600 | 78 | 296 | 1.7 | 5.2 | 0.00 | 0.00 | 0.00 | 83 | 1014.5 |
| 20260902015408 | 78 | 289 | 1.7 | 5.2 | 0.00 | 0.00 | 0.00 | 83 | 1014.4 |
| 20260902015351 | 78 | 271 | 1.7 | 5.2 | 0.00 | 0.00 | 0.00 | 83 | 1014.4 |
| 20260902015158 | 78 | 326 | 0.9 | 5.2 | 0.00 | 0.00 | 0.00 | 82 | 1014.4 |
| 20260902015011 | 78 | 286 | 0.9 | 5.2 | 0.00 | 0.00 | 0.00 | 82 | 1014.3 |
| 20260902014851 | 78 | 286 | 0.9 | 5.2 | 0.00 | 0.00 | 0.00 | 82 | 1014.3 |
| 20260902014758 | 78 | 271 | 0.0 | 5.2 | 0.00 | 0.00 | 0.00 | 82 | 1014.3 |
| 20260902014557 | 78 | 315 | 0.0 | 1.7 | 0.00 | 0.00 | 0.00 | 82 | 1014.4 |
| 20260902014339 | 78 | 65 | 0.0 | 2.6 | 0.00 | 0.00 | 0.00 | 82 | 1014.3 |
| 20260902014144 | 78 | 65 | 0.0 | 2.6 | 0.00 | 0.00 | 0.00 | 82 | 1014.3 |
| 20260902013945 | 78 | 52 | 0.0 | 2.6 | 0.00 | 0.00 | 0.00 | 82 | 1014.3 |
| 20260902013850 | 78 | 44 | 0.0 | 2.6 | 0.00 | 0.00 | 0.00 | 82 | 1014.3 |
| 20260902013741 | 78 | 47 | 0.0 | 2.6 | 0.00 | 0.00 | 0.00 | 82 | 1014.3 |
| 20260902013535 | 78 | 83 | 0.0 | 1.7 | 0.00 | 0.00 | 0.00 | 83 | 1014.3 |
| 20260902013339 | 78 | 0 | 0.0 | 3.5 | 0.00 | 0.00 | 0.00 | 83 | 1014.3 |
| 20260902013246 | 78 | 5 | 0.0 | 3.5 | 0.00 | 0.00 | 0.00 | 83 | 1014.3 |
| 20260902013126 | 78 | 13 | 0.0 | 1.7 | 0.00 | 0.00 | 0.00 | 83 | 1014.4 |
| 20260902013003 | 78 | 0 | 0.0 | 3.5 | 0.00 | 0.00 | 0.00 | 83 | 1014.2 |
| 20260902012921 | 78 | 22 | 0.0 | 3.5 | 0.00 | 0.00 | 0.00 | 83 | 1014.3 |
| 20260902012827 | 78 | 45 | 0.0 | 3.5 | 0.00 | 0.00 | 0.00 | 83 | 1014.3 |
| 20260902012711 | 78 | 42 | 0.0 | 3.5 | 0.00 | 0.00 | 0.00 | 83 | 1014.4 |
| 20260902012328 | 78 | 0 | 0.0 | 0.0 | 0.00 | 0.00 | 0.00 | 83 | 1014.4 |
| 20260902012118 | 78 | 0 | 0.0 | 0.0 | 0.00 | 0.00 | 0.00 | 83 | 1014.4 |
| 20260902011923 | 78 | 5 | 0.0 | 0.0 | 0.00 | 0.00 | 0.00 | 83 | 1014.4 |
| 20260902011837 | 78 | 5 | 0.0 | 0.0 | 0.00 | 0.00 | 0.00 | 83 | 1014.5 |
| 20260902011714 | 78 | 0 | 0.0 | 1.7 | 0.00 | 0.00 | 0.00 | 83 | 1014.5 |
| 20260902011701 | 78 | 0 | 0.9 | 2.6 | 0.00 | 0.00 | 0.00 | 83 | 1014.4 |
| 20260902011548 | 78 | 5 | 0.9 | 2.6 | 0.00 | 0.00 | 0.00 | 83 | 1014.3 |
| 20260902011436 | 78 | 5 | 0.9 | 2.6 | 0.00 | 0.00 | 0.00 | 83 | 1014.4 |
| 20260902011417 | 78 | 0 | 0.9 | 2.6 | 0.00 | 0.00 | 0.00 | 83 | 1014.4 |
| 20260902011302 | 78 | 0 | 0.9 | 2.6 | 0.00 | 0.00 | 0.00 | 83 | 1014.5 |
| 20260902011117 | 78 | 5 | 0.9 | 2.6 | 0.00 | 0.00 | 0.00 | 83 | 1014.4 |
| 20260902010651 | 78 | 317 | 0.9 | 2.6 | 0.00 | 0.00 | 0.00 | 83 | 1014.4 |
| 20260902010447 | 78 | 313 | 1.7 | 5.2 | 0.00 | 0.00 | 0.00 | 82 | 1014.5 |
| 20260902010330 | 78 | 313 | 1.7 | 5.2 | 0.00 | 0.00 | 0.00 | 82 | 1014.4 |
| 20260902010238 | 78 | 313 | 1.7 | 5.2 | 0.00 | 0.00 | 0.00 | 82 | 1014.4 |
| 20260902010030 | 78 | 342 | 1.7 | 5.2 | 0.00 | 0.00 | 0.00 | 82 | 1014.4 |
| 20260902005834 | 78 | 342 | 2.6 | 5.2 | 0.00 | 0.00 | 0.00 | 82 | 1014.4 |
| 20260902005622 | 78 | 290 | 2.6 | 5.2 | 0.00 | 0.00 | 0.00 | 82 | 1014.4 |
| 20260902005420 | 78 | 331 | 1.7 | 5.2 | 0.00 | 0.00 | 0.00 | 82 | 1014.3 |
| 20260902005313 | 78 | 318 | 1.7 | 5.2 | 0.00 | 0.00 | 0.00 | 82 | 1014.2 |
| 20260902005216 | 78 | 271 | 1.7 | 5.2 | 0.00 | 0.00 | 0.00 | 82 | 1014.3 |
| 20260902005011 | 78 | 271 | 1.7 | 5.2 | 0.00 | 0.00 | 0.00 | 82 | 1014.3 |
| 20260902004812 | 78 | 292 | 0.9 | 4.3 | 0.00 | 0.00 | 0.00 | 82 | 1014.3 |
| 20260902004609 | 78 | 318 | 0.9 | 3.5 | 0.00 | 0.00 | 0.00 | 82 | 1014.4 |
| 20260902004408 | 78 | 318 | 0.9 | 3.5 | 0.00 | 0.00 | 0.00 | 82 | 1014.3 |
| 20260902004308 | 78 | 319 | 0.9 | 3.5 | 0.00 | 0.00 | 0.00 | 82 | 1014.3 |
| 20260902004214 | 78 | 319 | 0.0 | 3.5 | 0.00 | 0.00 | 0.00 | 82 | 1014.3 |
| 20260902004008 | 78 | 284 | 0.0 | 2.6 | 0.00 | 0.00 | 0.00 | 82 | 1014.3 |
| 20260902003812 | 78 | 306 | 0.0 | 0.0 | 0.00 | 0.00 | 0.00 | 81 | 1014.3 |
| 20260902003608 | 78 | 306 | 0.0 | 0.0 | 0.00 | 0.00 | 0.00 | 81 | 1014.3 |
| 20260902003405 | 78 | 306 | 0.0 | 0.0 | 0.00 | 0.00 | 0.00 | 81 | 1014.2 |
| 20260902003302 | 78 | 306 | 0.0 | 0.0 | 0.00 | 0.00 | 0.00 | 81 | 1014.2 |
| 20260902003206 | 78 | 306 | 0.0 | 0.0 | 0.00 | 0.00 | 0.00 | 81 | 1014.3 |
| 20260902003001 | 78 | 306 | 0.0 | 0.0 | 0.00 | 0.00 | 0.00 | 81 | 1014.3 |
| 20260902002741 | 78 | 306 | 0.0 | 0.0 | 0.00 | 0.00 | 0.00 | 81 | 1014.3 |
| 20260902002541 | 78 | 306 | 0.0 | 0.0 | 0.00 | 0.00 | 0.00 | 81 | 1014.3 |
| 20260902002330 | 78 | 306 | 0.0 | 0.0 | 0.00 | 0.00 | 0.00 | 81 | 1014.3 |
| 20260902002256 | 78 | 306 | 0.0 | 1.7 | 0.00 | 0.00 | 0.00 | 81 | 1014.3 |
| 20260902002112 | 78 | 306 | 0.0 | 2.6 | 0.00 | 0.00 | 0.00 | 81 | 1014.3 |
| 20260902001944 | 78 | 306 | 1.7 | 3.5 | 0.00 | 0.00 | 0.00 | 81 | 1014.3 |
| 20260902001917 | 78 | 306 | 0.9 | 2.6 | 0.00 | 0.00 | 0.00 | 81 | 1014.3 |
| 20260902001809 | 78 | 306 | 0.9 | 2.6 | 0.00 | 0.00 | 0.00 | 81 | 1014.3 |
| 20260902001735 | 78 | 306 | 0.9 | 2.6 | 0.00 | 0.00 | 0.00 | 81 | 1014.3 |
| 20260902001623 | 78 | 306 | 1.7 | 2.6 | 0.00 | 0.00 | 0.00 | 81 | 1014.3 |
| 20260902001521 | 78 | 306 | 1.7 | 3.5 | 0.00 | 0.00 | 0.00 | 81 | 1014.3 |
| 20260902001101 | 78 | 306 | 1.7 | 3.5 | 0.00 | 0.00 | 0.00 | 81 | 1014.4 |
| 20260902000850 | 78 | 306 | 1.7 | 3.5 | 0.00 | 0.00 | 0.00 | 81 | 1014.3 |
| 20260902000743 | 78 | 290 | 1.7 | 3.5 | 0.00 | 0.00 | 0.00 | 81 | 1014.3 |
| 20260902000642 | 78 | 304 | 1.7 | 3.5 | 0.00 | 0.00 | 0.00 | 81 | 1014.3 |
| 20260902000542 | 79 | 283 | 1.7 | 5.2 | 0.00 | 0.00 | 0.00 | 82 | 1014.1 |
| 20260902000447 | 78 | 309 | 1.7 | 3.5 | 0.00 | 0.00 | 0.00 | 81 | 1014.3 |
| 20260902000311 | 78 | 351 | 1.7 | 3.5 | 0.00 | 0.00 | 0.00 | 82 | 1014.3 |
| 20260902000135 | 78 | 317 | 0.9 | 3.5 | 0.00 | 0.00 | 0.00 | 82 | 1014.2 |
| 20260902000007 | 78 | 318 | 0.9 | 2.6 | 0.00 | 0.00 | 0.00 | 82 | 1014.2 |
| 20260901235915 | 78 | 319 | 0.9 | 2.6 | 0.00 | 0.00 | 0.00 | 82 | 1014.3 |
| 20260901235823 | 78 | 319 | 0.9 | 2.6 | 0.00 | 0.00 | 0.00 | 82 | 1014.3 |
| 20260901235444 | 79 | 336 | 0.9 | 2.6 | 0.00 | 0.00 | 0.00 | 82 | 1014.3 |
| 20260901235312 | 79 | 307 | 0.9 | 3.5 | 0.00 | 0.00 | 0.00 | 82 | 1014.3 |
| 20260901235155 | 79 | 307 | 1.7 | 3.5 | 0.00 | 0.00 | 0.00 | 82 | 1014.3 |
| 20260901235035 | 79 | 307 | 1.7 | 4.3 | 0.00 | 0.00 | 0.00 | 82 | 1014.3 |
| 20260901234937 | 79 | 307 | 1.7 | 4.3 | 0.00 | 0.00 | 0.00 | 82 | 1014.3 |
| 20260901234849 | 79 | 307 | 1.7 | 4.3 | 0.00 | 0.00 | 0.00 | 82 | 1014.2 |
| 20260901234644 | 79 | 319 | 1.7 | 4.3 | 0.00 | 0.00 | 0.00 | 82 | 1014.2 |
| 20260901234528 | 79 | 322 | 1.7 | 4.3 | 0.00 | 0.00 | 0.00 | 82 | 1014.1 |
| 20260901234459 | 79 | 314 | 1.7 | 4.3 | 0.00 | 0.00 | 0.00 | 82 | 1014.1 |
| 20260901234241 | 79 | 292 | 1.7 | 5.2 | 0.00 | 0.00 | 0.00 | 82 | 1014.1 |
| 20260901234035 | 79 | 284 | 1.7 | 5.2 | 0.00 | 0.00 | 0.00 | 82 | 1014.1 |
| 20260901233611 | 79 | 281 | 2.6 | 5.2 | 0.00 | 0.00 | 0.00 | 82 | 1014.2 |
| 20260901233406 | 79 | 292 | 2.6 | 5.2 | 0.00 | 0.00 | 0.00 | 82 | 1014.2 |
| 20260901233241 | 79 | 325 | 2.6 | 5.2 | 0.00 | 0.00 | 0.00 | 82 | 1014.2 |
| 20260901233214 | 79 | 313 | 2.6 | 5.2 | 0.00 | 0.00 | 0.00 | 82 | 1014.2 |
| 20260901232949 | 79 | 311 | 1.7 | 4.3 | 0.00 | 0.00 | 0.00 | 82 | 1014.2 |
| 20260901232752 | 79 | 319 | 1.7 | 4.3 | 0.00 | 0.00 | 0.00 | 82 | 1014.2 |
| 20260901232727 | 79 | 302 | 1.7 | 4.3 | 0.00 | 0.00 | 0.00 | 82 | 1014.2 |
| 20260901232548 | 79 | 311 | 1.7 | 3.5 | 0.00 | 0.00 | 0.00 | 82 | 1014.2 |
| 20260901232347 | 79 | 325 | 1.7 | 3.5 | 0.00 | 0.00 | 0.00 | 82 | 1014.2 |
| 20260901232231 | 79 | 291 | 1.7 | 3.5 | 0.00 | 0.00 | 0.00 | 82 | 1014.2 |
| 20260901232147 | 79 | 294 | 1.7 | 3.5 | 0.00 | 0.00 | 0.00 | 82 | 1014.2 |
| 20260901231943 | 79 | 317 | 1.7 | 3.5 | 0.00 | 0.00 | 0.00 | 82 | 1014.1 |
| 20260901231746 | 79 | 324 | 0.9 | 3.5 | 0.00 | 0.00 | 0.00 | 82 | 1014.2 |
| 20260901231728 | 79 | 298 | 0.9 | 2.6 | 0.00 | 0.00 | 0.00 | 82 | 1014.2 |
| 20260901231534 | 79 | 318 | 0.9 | 2.6 | 0.00 | 0.00 | 0.00 | 82 | 1014.2 |
| 20260901231333 | 79 | 355 | 0.9 | 2.6 | 0.00 | 0.00 | 0.00 | 82 | 1014.2 |
| 20260901231235 | 79 | 317 | 0.9 | 2.6 | 0.00 | 0.00 | 0.00 | 82 | 1014.2 |
| 20260901231131 | 79 | 317 | 0.9 | 2.6 | 0.00 | 0.00 | 0.00 | 82 | 1014.1 |
| 20260901230939 | 79 | 347 | 0.9 | 3.5 | 0.00 | 0.00 | 0.00 | 82 | 1014.1 |
| 20260901230737 | 79 | 331 | 1.7 | 5.2 | 0.00 | 0.00 | 0.00 | 82 | 1014.1 |
| 20260901230620 | 79 | 342 | 1.7 | 3.5 | 0.00 | 0.00 | 0.00 | 81 | 1014.2 |
| 20260901230606 | 79 | 336 | 2.6 | 3.5 | 0.00 | 0.00 | 0.00 | 81 | 1014.2 |
| 20260901230537 | 79 | 331 | 1.7 | 5.2 | 0.00 | 0.00 | 0.00 | 82 | 1014.1 |
| 20260901230417 | 79 | 315 | 1.7 | 5.2 | 0.00 | 0.00 | 0.00 | 82 | 1014.2 |
| 20260901230332 | 79 | 33 | 2.6 | 5.2 | 0.00 | 0.00 | 0.00 | 82 | 1014.2 |
| 20260901230254 | 79 | 333 | 2.6 | 5.2 | 0.00 | 0.00 | 0.00 | 82 | 1014.2 |
| 20260901230142 | 79 | 333 | 2.6 | 5.2 | 0.00 | 0.00 | 0.00 | 82 | 1014.2 |
| 20260901230018 | 79 | 348 | 1.7 | 3.5 | 0.00 | 0.00 | 0.00 | 82 | 1014.2 |
| 20260901225631 | 79 | 347 | 2.6 | 3.5 | 0.00 | 0.00 | 0.00 | 81 | 1014.2 |
| 20260901225518 | 79 | 326 | 2.6 | 3.5 | 0.00 | 0.00 | 0.00 | 81 | 1014.2 |
| 20260901225122 | 79 | 301 | 2.6 | 3.5 | 0.00 | 0.00 | 0.00 | 81 | 1014.2 |
| 20260901224920 | 79 | 311 | 2.6 | 3.5 | 0.00 | 0.00 | 0.00 | 81 | 1014.3 |
| 20260901224729 | 79 | 341 | 1.7 | 4.3 | 0.00 | 0.00 | 0.00 | 81 | 1014.2 |
| 20260901224512 | 79 | 311 | 1.7 | 4.3 | 0.00 | 0.00 | 0.00 | 81 | 1014.3 |
| 20260901224313 | 79 | 323 | 1.7 | 4.3 | 0.00 | 0.00 | 0.00 | 81 | 1014.2 |
| 20260901224219 | 79 | 317 | 1.7 | 4.3 | 0.00 | 0.00 | 0.00 | 81 | 1014.1 |
| 20260901224122 | 79 | 341 | 1.7 | 4.3 | 0.00 | 0.00 | 0.00 | 80 | 1014.2 |
| 20260901223930 | 79 | 304 | 1.7 | 3.5 | 0.00 | 0.00 | 0.00 | 80 | 1014.1 |
| 20260901223911 | 79 | 293 | 1.7 | 4.3 | 0.00 | 0.00 | 0.00 | 80 | 1014.2 |
| 20260901223751 | 79 | 327 | 1.7 | 3.5 | 0.00 | 0.00 | 0.00 | 80 | 1014.2 |
| 20260901223741 | 79 | 329 | 1.7 | 3.5 | 0.00 | 0.00 | 0.00 | 80 | 1014.2 |
| 20260901223617 | 79 | 327 | 1.7 | 3.5 | 0.00 | 0.00 | 0.00 | 80 | 1014.2 |
| 20260901223502 | 79 | 296 | 1.7 | 3.5 | 0.00 | 0.00 | 0.00 | 80 | 1014.3 |
| 20260901223109 | 79 | 317 | 1.7 | 3.5 | 0.00 | 0.00 | 0.00 | 80 | 1014.2 |
| 20260901222929 | 79 | 322 | 1.7 | 3.5 | 0.00 | 0.00 | 0.00 | 80 | 1014.1 |
| 20260901222900 | 79 | 329 | 1.7 | 3.5 | 0.00 | 0.00 | 0.00 | 80 | 1014.2 |
| 20260901222722 | 79 | 292 | 1.7 | 3.5 | 0.00 | 0.00 | 0.00 | 80 | 1014.1 |
| 20260901222708 | 79 | 292 | 2.6 | 3.5 | 0.00 | 0.00 | 0.00 | 80 | 1014.1 |
| 20260901222606 | 82 | 240 | 0.9 | 1.7 | 0.00 | 0.00 | 0.00 | 78 | 1013.6 |
| 20260901222512 | 79 | 313 | 2.6 | 4.3 | 0.00 | 0.00 | 0.00 | 80 | 1014.1 |
| 20260901222351 | 79 | 309 | 2.6 | 5.2 | 0.00 | 0.00 | 0.00 | 80 | 1014.1 |
| 20260901222311 | 79 | 310 | 2.6 | 5.2 | 0.00 | 0.00 | 0.00 | 80 | 1014.1 |
| 20260901222217 | 79 | 296 | 2.6 | 5.2 | 0.00 | 0.00 | 0.00 | 80 | 1014.0 |
| 20260901222059 | 79 | 323 | 2.6 | 5.2 | 0.00 | 0.00 | 0.00 | 80 | 1014.0 |
| 20260901221912 | 79 | 323 | 2.6 | 5.2 | 0.00 | 0.00 | 0.00 | 80 | 1014.1 |
| 20260901221853 | 79 | 334 | 2.6 | 5.2 | 0.00 | 0.00 | 0.00 | 80 | 1014.1 |
| 20260901221734 | 79 | 309 | 2.6 | 5.2 | 0.00 | 0.00 | 0.00 | 80 | 1014.0 |
| 20260901221619 | 79 | 341 | 2.6 | 4.3 | 0.00 | 0.00 | 0.00 | 80 | 1014.1 |
| 20260901221544 | 79 | 355 | 2.6 | 4.3 | 0.00 | 0.00 | 0.00 | 80 | 1014.1 |
| 20260901221448 | 79 | 346 | 2.6 | 4.3 | 0.00 | 0.00 | 0.00 | 80 | 1014.0 |
| 20260901221340 | 79 | 322 | 2.6 | 4.3 | 0.00 | 0.00 | 0.00 | 80 | 1014.1 |
| 20260901221230 | 79 | 315 | 1.7 | 3.5 | 0.00 | 0.00 | 0.00 | 80 | 1014.1 |
| 20260901221204 | 79 | 340 | 1.7 | 3.5 | 0.00 | 0.00 | 0.00 | 80 | 1014.1 |
| 20260901221054 | 79 | 315 | 1.7 | 3.5 | 0.00 | 0.00 | 0.00 | 80 | 1014.1 |
| 20260901220940 | 79 | 318 | 1.7 | 3.5 | 0.00 | 0.00 | 0.00 | 80 | 1014.1 |
| 20260901220920 | 79 | 330 | 1.7 | 3.5 | 0.00 | 0.00 | 0.00 | 80 | 1014.1 |
| 20260901220810 | 79 | 334 | 1.7 | 3.5 | 0.00 | 0.00 | 0.00 | 80 | 1014.1 |
| 20260901220653 | 79 | 333 | 1.7 | 3.5 | 0.00 | 0.00 | 0.00 | 80 | 1014.1 |
| 20260901220559 | 79 | 327 | 1.7 | 3.5 | 0.00 | 0.00 | 0.00 | 80 | 1014.0 |
| 20260901220531 | 79 | 344 | 1.7 | 2.6 | 0.00 | 0.00 | 0.00 | 80 | 1014.0 |
| 20260901220409 | 79 | 344 | 1.7 | 2.6 | 0.00 | 0.00 | 0.00 | 80 | 1014.1 |
| 20260901220300 | 79 | 338 | 1.7 | 2.6 | 0.00 | 0.00 | 0.00 | 80 | 1014.1 |
| 20260901220244 | 79 | 320 | 1.7 | 2.6 | 0.00 | 0.00 | 0.00 | 80 | 1014.1 |
| 20260901220128 | 79 | 310 | 1.7 | 3.5 | 0.00 | 0.00 | 0.00 | 80 | 1014.1 |
| 20260901220022 | 79 | 317 | 1.7 | 3.5 | 0.00 | 0.00 | 0.00 | 80 | 1014.1 |
| 20260901215647 | 79 | 334 | 1.7 | 3.5 | 0.00 | 0.00 | 0.00 | 80 | 1014.1 |
| 20260901215538 | 79 | 331 | 1.7 | 3.5 | 0.00 | 0.00 | 0.00 | 80 | 1014.0 |
| 20260901215428 | 79 | 327 | 1.7 | 3.5 | 0.00 | 0.00 | 0.00 | 80 | 1014.1 |
| 20260901215407 | 79 | 314 | 1.7 | 3.5 | 0.00 | 0.00 | 0.00 | 80 | 1014.1 |
| 20260901215300 | 79 | 331 | 1.7 | 3.5 | 0.00 | 0.00 | 0.00 | 80 | 1014.1 |
| 20260901215151 | 79 | 281 | 1.7 | 3.5 | 0.00 | 0.00 | 0.00 | 80 | 1014.1 |
| 20260901215046 | 79 | 280 | 1.7 | 3.5 | 0.00 | 0.00 | 0.00 | 80 | 1014.1 |
| 20260901215021 | 79 | 281 | 1.7 | 3.5 | 0.00 | 0.00 | 0.00 | 80 | 1014.1 |
| 20260901214909 | 79 | 281 | 1.7 | 3.5 | 0.00 | 0.00 | 0.00 | 80 | 1014.1 |
| 20260901214755 | 79 | 276 | 1.7 | 3.5 | 0.00 | 0.00 | 0.00 | 80 | 1014.1 |
| 20260901214731 | 79 | 291 | 1.7 | 3.5 | 0.00 | 0.00 | 0.00 | 80 | 1014.1 |
| 20260901214637 | 79 | 334 | 1.7 | 3.5 | 0.00 | 0.00 | 0.00 | 80 | 1014.1 |
| 20260901214529 | 79 | 341 | 1.7 | 4.3 | 0.00 | 0.00 | 0.00 | 80 | 1014.1 |
| 20260901214427 | 79 | 303 | 1.7 | 4.3 | 0.00 | 0.00 | 0.00 | 80 | 1014.1 |
| 20260901214407 | 79 | 349 | 1.7 | 4.3 | 0.00 | 0.00 | 0.00 | 80 | 1014.1 |
| 20260901214257 | 79 | 346 | 1.7 | 4.3 | 0.00 | 0.00 | 0.00 | 79 | 1014.2 |
| 20260901214144 | 79 | 304 | 1.7 | 4.3 | 0.00 | 0.00 | 0.00 | 79 | 1014.2 |
| 20260901214123 | 79 | 302 | 1.7 | 4.3 | 0.00 | 0.00 | 0.00 | 79 | 1014.2 |
| 20260901214012 | 79 | 326 | 1.7 | 3.5 | 0.00 | 0.00 | 0.00 | 79 | 1014.3 |
| 20260901213859 | 79 | 295 | 1.7 | 3.5 | 0.00 | 0.00 | 0.00 | 79 | 1014.2 |
| 20260901213811 | 80 | 322 | 1.7 | 3.5 | 0.00 | 0.00 | 0.00 | 79 | 1014.1 |
| 20260901213724 | 80 | 310 | 1.7 | 3.5 | 0.00 | 0.00 | 0.00 | 79 | 1014.1 |
| 20260901213608 | 80 | 322 | 1.7 | 3.5 | 0.00 | 0.00 | 0.00 | 79 | 1014.0 |
| 20260901213441 | 80 | 307 | 1.7 | 3.5 | 0.00 | 0.00 | 0.00 | 79 | 1014.0 |
| 20260901213329 | 80 | 313 | 1.7 | 3.5 | 0.00 | 0.00 | 0.00 | 79 | 1014.1 |
| 20260901213214 | 80 | 313 | 1.7 | 3.5 | 0.00 | 0.00 | 0.00 | 79 | 1014.2 |
| 20260901213132 | 80 | 315 | 1.7 | 3.5 | 0.00 | 0.00 | 0.00 | 79 | 1014.2 |
| 20260901213050 | 80 | 310 | 1.7 | 3.5 | 0.00 | 0.00 | 0.00 | 79 | 1014.2 |
| 20260901212943 | 80 | 321 | 1.7 | 3.5 | 0.00 | 0.00 | 0.00 | 79 | 1014.0 |
| 20260901212814 | 80 | 313 | 1.7 | 3.5 | 0.00 | 0.00 | 0.00 | 79 | 1013.9 |
| 20260901212635 | 80 | 303 | 1.7 | 2.6 | 0.00 | 0.00 | 0.00 | 79 | 1013.8 |
| 20260901212527 | 80 | 311 | 1.7 | 2.6 | 0.00 | 0.00 | 0.00 | 79 | 1013.9 |
| 20260901212450 | 80 | 306 | 1.7 | 2.6 | 0.00 | 0.00 | 0.00 | 79 | 1013.9 |
| 20260901212353 | 80 | 309 | 1.7 | 2.6 | 0.00 | 0.00 | 0.00 | 79 | 1013.9 |
| 20260901212246 | 80 | 319 | 1.7 | 3.5 | 0.00 | 0.00 | 0.00 | 79 | 1013.9 |
| 20260901212150 | 80 | 311 | 1.7 | 3.5 | 0.00 | 0.00 | 0.00 | 79 | 1013.9 |
| 20260901212129 | 80 | 302 | 1.7 | 3.5 | 0.00 | 0.00 | 0.00 | 79 | 1013.9 |
| 20260901212020 | 80 | 334 | 1.7 | 3.5 | 0.00 | 0.00 | 0.00 | 79 | 1013.9 |
| 20260901211908 | 80 | 329 | 0.9 | 3.5 | 0.00 | 0.00 | 0.00 | 79 | 1013.9 |
| 20260901211836 | 80 | 321 | 0.9 | 3.5 | 0.00 | 0.00 | 0.00 | 79 | 1013.9 |
| 20260901211735 | 81 | 320 | 0.9 | 3.5 | 0.00 | 0.00 | 0.00 | 79 | 1013.9 |
| 20260901211612 | 81 | 315 | 0.9 | 2.6 | 0.00 | 0.00 | 0.00 | 79 | 1013.8 |
| 20260901211511 | 81 | 279 | 0.9 | 2.6 | 0.00 | 0.00 | 0.00 | 79 | 1013.8 |
| 20260901211449 | 81 | 273 | 0.9 | 2.6 | 0.00 | 0.00 | 0.00 | 79 | 1013.8 |
| 20260901211321 | 81 | 272 | 0.9 | 2.6 | 0.00 | 0.00 | 0.00 | 79 | 1013.8 |
| 20260901211135 | 81 | 300 | 0.9 | 2.6 | 0.00 | 0.00 | 0.00 | 79 | 1013.8 |
| 20260901211039 | 81 | 322 | 0.9 | 2.6 | 0.00 | 0.00 | 0.00 | 79 | 1013.8 |
| 20260901210933 | 81 | 321 | 0.9 | 2.6 | 0.00 | 0.00 | 0.00 | 79 | 1013.8 |
| 20260901210836 | 81 | 319 | 0.9 | 2.6 | 0.00 | 0.00 | 0.00 | 79 | 1013.7 |
| 20260901210810 | 81 | 325 | 0.0 | 2.6 | 0.00 | 0.00 | 0.00 | 79 | 1013.7 |
| 20260901210658 | 81 | 241 | 0.0 | 0.9 | 0.00 | 0.00 | 0.00 | 79 | 1013.7 |
| 20260901210547 | 81 | 241 | 0.0 | 0.9 | 0.00 | 0.00 | 0.00 | 79 | 1013.6 |
| 20260901210524 | 81 | 240 | 0.0 | 0.9 | 0.00 | 0.00 | 0.00 | 79 | 1013.6 |
| 20260901210431 | 81 | 240 | 0.0 | 0.0 | 0.00 | 0.00 | 0.00 | 79 | 1013.6 |
| 20260901210327 | 81 | 240 | 0.0 | 0.0 | 0.00 | 0.00 | 0.00 | 79 | 1013.6 |
| 20260901210240 | 81 | 240 | 0.0 | 0.9 | 0.00 | 0.00 | 0.00 | 79 | 1013.6 |
| 20260901210213 | 81 | 240 | 0.0 | 0.9 | 0.00 | 0.00 | 0.00 | 79 | 1013.6 |
| 20260901210100 | 81 | 240 | 0.0 | 0.9 | 0.00 | 0.00 | 0.00 | 79 | 1013.6 |
| 20260901205928 | 81 | 241 | 0.0 | 0.9 | 0.00 | 0.00 | 0.00 | 79 | 1013.6 |
| 20260901205912 | 81 | 241 | 0.0 | 0.9 | 0.00 | 0.00 | 0.00 | 79 | 1013.6 |
| 20260901205820 | 81 | 240 | 0.0 | 0.9 | 0.00 | 0.00 | 0.00 | 79 | 1013.6 |
| 20260901205707 | 81 | 240 | 0.0 | 0.9 | 0.00 | 0.00 | 0.00 | 78 | 1013.6 |
| 20260901205540 | 81 | 240 | 0.0 | 0.9 | 0.00 | 0.00 | 0.00 | 78 | 1013.6 |
| 20260901205442 | 81 | 241 | 0.0 | 1.7 | 0.00 | 0.00 | 0.00 | 78 | 1013.6 |
| 20260901205331 | 81 | 241 | 0.0 | 1.7 | 0.00 | 0.00 | 0.00 | 78 | 1013.6 |
| 20260901205227 | 81 | 241 | 0.0 | 1.7 | 0.00 | 0.00 | 0.00 | 78 | 1013.6 |
| 20260901204657 | 81 | 240 | 0.9 | 2.6 | 0.00 | 0.00 | 0.00 | 78 | 1013.6 |
| 20260901204122 | 81 | 240 | 0.9 | 2.6 | 0.00 | 0.00 | 0.00 | 78 | 1013.6 |
| 20260901204028 | 81 | 240 | 0.9 | 2.6 | 0.00 | 0.00 | 0.00 | 78 | 1013.6 |
| 20260901203944 | 81 | 241 | 0.9 | 2.6 | 0.00 | 0.00 | 0.00 | 78 | 1013.6 |
| 20260901203824 | 81 | 240 | 0.9 | 2.6 | 0.00 | 0.00 | 0.00 | 78 | 1013.6 |
| 20260901203712 | 82 | 241 | 0.9 | 2.6 | 0.00 | 0.00 | 0.00 | 78 | 1013.6 |
| 20260901203701 | 82 | 240 | 0.9 | 2.6 | 0.00 | 0.00 | 0.00 | 78 | 1013.6 |
| 20260901203603 | 82 | 240 | 0.9 | 1.7 | 0.00 | 0.00 | 0.00 | 78 | 1013.6 |
| 20260901203143 | 82 | 240 | 0.9 | 1.7 | 0.00 | 0.00 | 0.00 | 78 | 1013.6 |
| 20260901203039 | 82 | 240 | 0.9 | 1.7 | 0.00 | 0.00 | 0.00 | 78 | 1013.6 |
| 20260901202922 | 82 | 241 | 0.9 | 1.7 | 0.00 | 0.00 | 0.00 | 78 | 1013.6 |
| 20260901202915 | 82 | 240 | 0.9 | 1.7 | 0.00 | 0.00 | 0.00 | 78 | 1013.6 |
| 20260901202811 | 82 | 240 | 0.9 | 1.7 | 0.00 | 0.00 | 0.00 | 78 | 1013.6 |
| 20260901202702 | 82 | 240 | 0.9 | 1.7 | 0.00 | 0.00 | 0.00 | 77 | 1013.6 |
| 20260901202622 | 82 | 241 | 0.9 | 1.7 | 0.00 | 0.00 | 0.00 | 77 | 1013.6 |
| 20260901202549 | 82 | 240 | 0.9 | 1.7 | 0.00 | 0.00 | 0.00 | 77 | 1013.6 |
| 20260901202443 | 82 | 240 | 0.9 | 1.7 | 0.00 | 0.00 | 0.00 | 77 | 1013.5 |
| 20260901202336 | 82 | 240 | 0.9 | 2.6 | 0.00 | 0.00 | 0.00 | 77 | 1013.5 |
| 20260901202323 | 82 | 241 | 0.9 | 2.6 | 0.00 | 0.00 | 0.00 | 77 | 1013.5 |
| 20260901202221 | 82 | 240 | 0.9 | 2.6 | 0.00 | 0.00 | 0.00 | 77 | 1013.6 |
| 20260901202124 | 82 | 240 | 1.7 | 2.6 | 0.00 | 0.00 | 0.00 | 77 | 1013.6 |
| 20260901202049 | 82 | 240 | 1.7 | 2.6 | 0.00 | 0.00 | 0.00 | 77 | 1013.6 |
| 20260901202016 | 82 | 240 | 1.7 | 2.6 | 0.00 | 0.00 | 0.00 | 77 | 1013.6 |
| 20260901201911 | 82 | 240 | 1.7 | 2.6 | 0.00 | 0.00 | 0.00 | 77 | 1013.6 |
| 20260901201746 | 82 | 240 | 1.7 | 2.6 | 0.00 | 0.00 | 0.00 | 76 | 1013.7 |
| 20260901201639 | 82 | 240 | 1.7 | 3.5 | 0.00 | 0.00 | 0.00 | 76 | 1013.7 |
| 20260901201534 | 83 | 240 | 1.7 | 3.5 | 0.00 | 0.00 | 0.00 | 76 | 1013.6 |
| 20260901201451 | 83 | 240 | 1.7 | 3.5 | 0.00 | 0.00 | 0.00 | 76 | 1013.5 |
| 20260901201412 | 83 | 240 | 1.7 | 3.5 | 0.00 | 0.00 | 0.00 | 76 | 1013.5 |
| 20260901201313 | 83 | 251 | 1.7 | 3.5 | 0.00 | 0.00 | 0.00 | 76 | 1013.5 |
| 20260901201158 | 83 | 232 | 0.9 | 3.5 | 0.00 | 0.00 | 0.00 | 76 | 1013.5 |
| 20260901201057 | 83 | 224 | 0.0 | 3.5 | 0.00 | 0.00 | 0.00 | 76 | 1013.5 |
| 20260901200955 | 83 | 232 | 0.0 | 2.6 | 0.00 | 0.00 | 0.00 | 76 | 1013.4 |
| 20260901200920 | 83 | 225 | 0.0 | 0.9 | 0.00 | 0.00 | 0.00 | 76 | 1013.4 |
| 20260901200628 | 83 | 200 | 0.0 | 0.0 | 0.00 | 0.00 | 0.00 | 75 | 1013.5 |
| 20260901200433 | 83 | 200 | 0.0 | 0.0 | 0.00 | 0.00 | 0.00 | 75 | 1013.5 |
| 20260901200245 | 83 | 200 | 0.0 | 0.0 | 0.00 | 0.00 | 0.00 | 75 | 1013.5 |
| 20260901200008 | 83 | 200 | 0.0 | 0.0 | 0.00 | 0.00 | 0.00 | 75 | 1013.3 |
| 20260901195913 | 83 | 200 | 0.0 | 0.0 | 0.00 | 0.00 | 0.00 | 75 | 1013.3 |
| 20260901195134 | 82 | 241 | 0.9 | 1.7 | 0.00 | 0.00 | 0.00 | 78 | 1013.6 |
| 20260901194116 | 83 | 200 | 0.0 | 1.7 | 0.00 | 0.00 | 0.00 | 75 | 1013.2 |
| 20260901194014 | 83 | 200 | 0.0 | 1.7 | 0.00 | 0.00 | 0.00 | 74 | 1013.1 |
| 20260901193947 | 83 | 200 | 0.0 | 1.7 | 0.00 | 0.00 | 0.00 | 74 | 1013.1 |
| 20260901193859 | 83 | 200 | 0.0 | 1.7 | 0.00 | 0.00 | 0.00 | 74 | 1013.1 |
| 20260901193757 | 83 | 200 | 0.0 | 1.7 | 0.00 | 0.00 | 0.00 | 74 | 1013.1 |
| 20260901192810 | 83 | 200 | 0.0 | 0.0 | 0.00 | 0.00 | 0.00 | 74 | 1012.8 |
| 20260901191713 | 83 | 200 | 0.0 | 1.7 | 0.00 | 0.00 | 0.00 | 74 | 1012.6 |
| 20260901191436 | 83 | 200 | 0.0 | 1.7 | 0.00 | 0.00 | 0.00 | 74 | 1012.6 |
| 20260901191018 | 83 | 200 | 0.0 | 1.7 | 0.00 | 0.00 | 0.00 | 73 | 1012.5 |
| 20260901190604 | 84 | 200 | 0.9 | 2.6 | 0.00 | 0.00 | 0.00 | 73 | 1012.4 |
| 20260901185736 | 84 | 200 | 0.9 | 2.6 | 0.00 | 0.00 | 0.00 | 73 | 1012.4 |
| 20260901184908 | 84 | 192 | 0.9 | 2.6 | 0.00 | 0.00 | 0.00 | 73 | 1012.2 |
| 20260901184630 | 84 | 192 | 0.9 | 2.6 | 0.00 | 0.00 | 0.00 | 73 | 1012.2 |
| 20260901184535 | 84 | 192 | 0.9 | 3.5 | 0.00 | 0.00 | 0.00 | 73 | 1012.3 |
| 20260901183938 | 84 | 192 | 0.9 | 3.5 | 0.00 | 0.00 | 0.00 | 73 | 1012.3 |
| 20260901183202 | 84 | 168 | 0.0 | 2.6 | 0.00 | 0.00 | 0.00 | 73 | 1012.1 |
| 20260901181816 | 84 | 161 | 1.7 | 6.1 | 0.00 | 0.00 | 0.00 | 72 | 1012.1 |
| 20260901181309 | 84 | 188 | 1.7 | 6.1 | 0.00 | 0.00 | 0.00 | 72 | 1012.0 |
| 20260901181030 | 84 | 180 | 2.6 | 6.1 | 0.00 | 0.00 | 0.00 | 72 | 1012.1 |
| 20260901180611 | 84 | 135 | 2.6 | 6.1 | 0.00 | 0.00 | 0.00 | 72 | 1012.1 |
| 20260901175631 | 85 | 150 | 2.6 | 6.1 | 0.00 | 0.00 | 0.00 | 72 | 1012.2 |
| 20260901174943 | 85 | 82 | 3.5 | 7.8 | 0.00 | 0.00 | 0.00 | 72 | 1012.2 |
| 20260901174608 | 85 | 163 | 2.6 | 7.8 | 0.00 | 0.00 | 0.00 | 71 | 1012.2 |